[{"header": {"dx": 0.06612293990616946, "dy": 0.0552356325346848, "nx": 98, "ny": 59, "la1": 35.046912555036876, "la2": 31.78801023549047, "lo1": -121.43107172385933, "lo2": -114.95102361305473, "refTime": "2026041206", "parameterCategory": 1, "parameterNumber": 2}, "data": [14.31, 14.55, 14.55, 14.7, 14.7, 14.75, 14.75, 14.75, 14.75, 14.66, 13.77, 11.28, 12.27, 10.0, 9.2, 9.6, 8.58, 7.59, 5.95, 5.95, 7.9, 9.3, 9.32, 9.6, 10.18, 10.6, 9.32, 8.73, 7.9, 7.27, 6.5, 6.2, 6.44, 6.01, -4.0, -4.2, 0.0, 8.0, 7.6, 8.05, 8.06, 9.83, 11.62, 12.58, 13.28, 14.65, 16.54, 17.16, 15.54, 12.7, 9.69, 10.12, 10.12, 10.12, 10.94, 10.59, 10.59, 10.99, 11.77, 11.99, 12.38, 12.45, 11.26, 10.12, 9.17, 10.3, 10.52, 11.53, 12.09, 13.51, 13.78, 13.39, 12.6, 11.45, 12.22, 12.27, 12.35, 13.29, 13.86, 12.42, 7.27, 0.0, 3.39, 5.7, 7.27, 8.55, 9.2, 10.38, 11.4, 11.71, 11.21, 11.2, 10.41, 5.8, -9.17, -5.8, -4.1, -4.24, 13.88, 14.31, 14.55, 14.55, 14.7, 14.7, 15.2, 15.2, 14.75, 14.75, 13.31, 12.79, 11.4, 10.41, 11.03, 10.6, 7.27, 8.22, 7.59, 5.7, 6.7, 8.53, 9.66, 9.97, 9.6, 9.96, 9.2, 8.23, 6.7, 5.0, 3.97, 1.98, -0.0, -4.56, -8.05, -8.24, -7.2, 0.0, 8.49, -0.0, 3.11, 8.22, 10.79, 12.42, 15.11, 16.6, 18.26, 16.41, 14.13, 10.99, 10.62, 10.62, 10.62, 10.23, 10.59, 11.09, 11.16, 11.77, 11.99, 12.52, 12.72, 11.6, 9.17, 7.78, 8.1, 8.44, 9.48, 10.36, 11.87, 13.39, 14.36, 14.17, 13.2, 12.42, 12.88, 12.9, 12.31, 13.29, 13.86, 12.42, 7.27, 0.0, 3.39, 5.7, 7.27, 8.55, 9.2, 10.38, 11.4, 11.71, 11.21, 11.2, 10.41, 5.8, -9.17, -5.8, -4.1, -4.24, 13.88, 14.31, 14.55, 14.55, 14.7, 14.7, 15.2, 15.2, 15.2, 14.3, 12.52, 10.18, 11.4, 11.28, 10.41, 10.41, 9.3, 9.3, 6.2, 5.6, 6.2, 9.67, 10.4, 10.35, 9.77, 8.03, 6.95, 4.4, -0.0, -0.0, -0.0, -0.0, -0.0, -0.0, -0.0, -6.01, -7.2, -8.94, -9.39, -0.0, -0.0, 7.13, 12.57, 16.44, 18.66, 19.08, 18.38, 16.02, 11.72, 10.79, 11.12, 11.16, 10.99, 10.99, 10.01, 10.73, 11.5, 12.21, 12.38, 12.72, 12.45, 9.17, 4.81, 5.11, 6.3, 7.96, 8.1, 9.27, 10.75, 12.36, 13.91, 14.99, 14.38, 12.94, 12.96, 12.52, 12.52, 14.27, 13.86, 13.34, 6.45, 0.0, 0.0, 3.25, 3.82, 6.42, 8.55, 9.58, 10.8, 11.21, 12.17, 12.07, 10.59, 8.05, -0.0, -2.54, -3.56, -3.68, 13.88, 13.88, 14.55, 14.55, 14.55, 14.7, 15.14, 15.2, 14.75, 13.86, 12.07, 10.73, 11.84, 10.84, 10.84, 10.84, 11.03, 10.8, 5.4, 7.9, 7.9, 9.6, 10.6, 10.4, 8.58, 7.9, 6.42, 3.11, -0.0, -3.25, -2.42, -2.08, -1.05, -0.0, 4.2, 6.64, 6.95, 10.0, -0.0, -0.0, 2.65, 11.27, 16.48, 16.85, 16.32, 15.49, 14.23, 11.3, 11.2, 11.6, 10.94, 11.26, 11.26, 10.19, 10.61, 11.33, 11.6, 12.6, 12.72, 12.94, 11.6, 4.81, 3.04, 3.73, 5.36, 6.53, 7.62, 8.59, 10.01, 11.06, 12.9, 14.06, 14.81, 13.28, 12.07, 10.8, 10.8, 13.11, 15.65, 13.36, 6.45, 0.0, 0.0, 0.0, 0.0, 0.0, 6.45, 10.35, 10.19, 11.69, 13.02, 11.93, 10.3, 12.96, -0.0, -0.0, -1.9, -1.66, 13.88, 13.88, 14.55, 14.55, 14.55, 14.7, 15.14, 15.14, 14.75, 13.86, 12.07, 10.73, 11.62, 11.18, 10.73, 11.62, 11.03, 10.8, 8.53, 8.53, 11.2, 10.6, 10.73, 11.03, 8.38, 6.98, 6.98, 5.75, -0.0, -3.65, -5.29, -6.42, -7.26, -2.82, 6.2, 8.94, 9.58, 12.04, 14.84, -0.0, -0.0, 8.97, 10.75, 10.3, 10.55, 10.48, 10.48, 10.87, 11.5, 11.6, 11.12, 10.79, 10.41, 10.19, 10.61, 11.6, 12.18, 12.6, 13.01, 13.01, 7.19, -0.0, 1.48, 3.65, 4.97, 6.57, 7.44, 8.05, 8.18, 9.89, 12.45, 14.92, 16.23, 15.76, 12.74, 10.75, 7.28, 10.01, 13.88, 13.82, 9.67, 0.0, 0.0, -5.2, -6.97, -2.37, 4.65, 9.17, 10.02, 12.11, 11.76, 11.09, 12.96, -0.0, -0.0, -0.0, -1.66, -1.66, 13.57, 13.88, 13.88, 14.55, 14.55, 14.7, 15.14, 14.69, 14.68, 13.86, 12.07, 10.28, 11.18, 10.73, 11.18, 11.18, 11.03, 10.8, 12.07, 12.52, 12.52, 11.71, 11.16, 10.79, 6.7, 5.4, 5.2, 5.0, 3.53, 2.19, -2.28, -6.64, -8.18, -8.53, 11.99, 12.45, 12.3, 13.53, 16.54, -5.94, -3.16, 5.31, 6.63, 7.51, 8.24, 8.32, 9.36, 10.41, 10.87, 10.73, 9.42, 10.41, 10.19, 10.87, 11.85, 12.04, 12.51, 12.75, 13.19, 12.72, -0.0, -0.0, 1.33, 2.35, 4.47, 7.0, 8.4, 8.05, 8.05, 9.36, 11.54, 14.0, 14.97, 16.02, 16.97, 14.6, 9.17, 4.65, 10.35, 11.98, 6.7, 0.0, -2.37, -5.98, -5.2, 0.0, 4.65, 8.41, 10.52, 10.22, 9.5, 9.48, -0.0, -0.0, -0.0, -0.0, -0.0, -0.0, 13.57, 13.88, 13.88, 14.55, 14.55, 14.55, 14.69, 14.69, 14.23, 13.77, 12.07, 9.83, 10.73, 10.73, 12.07, 11.18, 12.07, 12.52, 12.52, 12.52, 12.96, 14.3, 13.99, 11.06, 6.8, 4.66, 4.81, 6.4, 4.81, 4.8, 2.6, -0.0, -3.11, -0.0, 8.22, 13.15, 14.03, 13.15, 12.39, -0.0, -3.47, -0.0, 4.98, 6.0, 8.57, 8.61, 9.17, 8.85, 9.02, 9.62, 8.85, 9.27, 10.87, 11.72, 12.22, 12.88, 12.96, 12.96, 12.96, 9.17, -0.0, -0.0, -0.0, 2.64, 4.95, 7.84, 9.16, 9.62, 10.12, 11.9, 13.19, 14.11, 15.18, 16.37, 16.62, 16.58, 14.68, 11.2, 11.45, 11.62, 6.7, 0.0, 0.0, -1.39, -1.11, 1.84, 5.99, 8.2, 8.91, 8.15, 5.6, -5.8, -2.2, -0.0, -0.0, -0.0, -0.0, -0.0, 13.15, 13.88, 13.88, 14.11, 14.55, 14.55, 14.7, 14.69, 14.23, 13.33, 11.09, 9.74, 10.28, 11.18, 12.52, 10.6, 12.07, 12.96, 12.96, 13.41, 13.41, 13.41, 13.41, 11.06, 15.2, 15.2, 15.65, 11.38, 6.6, 6.0, 2.93, -0.0, -0.0, 5.6, 10.6, 12.52, 12.96, 11.18, 10.79, 6.45, -0.0, -0.0, 5.09, 7.6, 11.38, 10.12, 8.85, 9.48, 8.59, 8.23, 6.97, 8.53, 10.87, 12.14, 12.52, 12.42, 12.42, 12.39, 11.71, -0.0, -0.0, -0.0, -0.0, 2.56, 5.19, 7.71, 10.83, 12.65, 13.84, 14.31, 14.6, 15.17, 15.2, 15.62, 16.07, 15.2, 14.6, 13.15, 12.04, 14.3, 15.53, 3.82, 1.39, 0.0, 1.0, 3.68, 5.63, 7.73, 6.98, 4.48, -10.8, -4.65, -4.98, -0.0, -0.0, -0.0, -0.0, -0.0, 13.15, 13.88, 13.88, 14.11, 14.55, 14.55, 14.55, 14.51, 14.03, 12.71, 11.28, 11.18, 12.3, 12.58, 11.87, 11.87, 11.6, 11.99, 9.48, 9.48, 9.48, 9.48, 9.8, 0.0, 0.0, 0.0, 9.83, 13.86, -0.0, 4.52, 4.38, -0.0, -0.0, 13.86, 12.52, 11.62, 10.0, 10.6, 9.75, 5.7, -0.0, -0.0, 6.6, 8.85, 9.3, 8.59, 6.94, 8.05, 8.58, 8.45, 8.91, 8.02, 8.53, 10.8, 12.07, 11.46, 11.03, 10.4, 0.0, -13.41, -0.0, 1.33, 2.54, 3.65, 5.31, 9.33, 13.38, 14.61, 15.43, 14.75, 14.71, 14.47, 14.9, 14.4, 14.09, 14.26, 14.75, 14.68, 13.81, 16.06, 16.48, 8.58, 1.76, 2.82, 3.34, 4.12, 5.8, 6.96, 5.54, 11.62, -5.4, -4.65, -6.44, -6.2, -0.0, -0.0, -0.0, -0.0, 13.15, 13.44, 13.88, 14.11, 14.55, 14.55, 14.55, 14.55, 14.07, 12.71, 12.22, 12.58, 11.61, 12.72, 13.44, 12.72, 12.79, 13.19, 10.43, 6.0, 5.8, 5.8, 0.0, 0.0, 0.0, 0.0, 9.39, -10.73, 14.75, -0.0, 14.75, 16.54, 0.0, 13.86, 12.07, 11.18, 10.73, 9.39, 6.45, 3.14, 4.81, 5.8, 8.22, 9.2, 8.82, 7.9, 6.76, 7.85, 9.17, 9.48, 7.78, 6.65, 6.36, 5.8, 5.99, 6.97, 5.2, -0.0, -8.22, -0.0, 1.42, 2.02, 2.64, 4.38, 5.92, 9.33, 13.58, 15.2, 14.26, 13.63, 13.02, 12.18, 13.15, 14.25, 13.99, 14.11, 14.23, 13.39, 12.08, 15.16, 17.43, 16.54, 3.25, 3.98, 5.29, 5.46, 5.98, 5.98, 7.9, -0.0, -0.0, -5.4, -7.78, -9.48, -6.2, -2.72, -0.0, -0.0, 13.15, 13.44, 13.88, 14.55, 14.55, 14.55, 14.55, 14.55, 13.8, 12.85, 12.3, 13.44, 12.98, 12.74, 13.28, 13.28, 14.84, 15.18, 13.99, 13.59, 14.51, 15.59, 12.01, 10.43, 10.43, 12.96, 10.28, 10.28, 12.96, 0.0, 9.17, 9.17, 12.07, 11.18, 7.9, 10.8, 11.62, 5.2, 4.48, 6.2, 7.36, 8.05, 8.22, 10.6, 8.93, 5.29, 5.52, 7.9, 8.73, 6.5, 4.65, 4.27, 3.95, 4.07, 3.38, 2.64, 3.69, 5.55, 10.04, -0.0, 0.99, 2.72, 3.69, 5.3, 6.37, 8.43, 10.3, 12.01, 12.52, 12.3, 12.52, 12.46, 12.79, 13.07, 12.87, 12.87, 11.64, 9.17, 9.62, 12.25, 14.95, 16.03, 14.75, 9.17, 8.22, 8.93, 8.23, 8.58, 9.6, 11.18, 11.18, -8.53, -7.51, -10.37, -9.48, -6.0, -2.63, -2.54, 13.15, 13.37, 13.88, 14.31, 14.55, 14.55, 14.58, 14.31, 13.8, 12.85, 12.72, 12.98, 13.81, 13.39, 11.99, 11.72, 12.04, 14.47, 15.78, 15.77, 15.36, 15.78, 15.65, 16.09, 13.41, 12.96, 12.52, 8.05, 11.18, 9.2, 9.6, 11.62, 11.62, 9.83, 10.73, 7.27, 7.27, 2.93, 2.45, 4.98, 8.31, 8.05, 8.53, 7.9, 5.7, 3.49, 2.6, 4.8, 4.15, 1.84, 1.0, 0.86, 1.67, 1.78, 1.78, 2.72, 4.67, 7.98, 9.17, 2.54, 0.89, 3.38, 4.66, 4.34, 4.96, 6.13, 7.65, 7.44, 6.25, 6.64, 7.42, 9.5, 11.26, 12.96, 12.58, 11.09, 9.8, 7.44, 8.85, 11.16, 13.86, 12.45, 11.5, 14.31, 12.14, 12.96, 11.62, 9.97, 10.41, 8.93, 0.0, -7.59, -7.9, -9.66, -8.85, -6.94, -5.6, -4.65, 13.15, 13.37, 13.8, 14.31, 14.31, 14.31, 14.37, 13.94, 13.57, 13.02, 13.15, 13.57, 13.81, 14.23, 14.3, 13.89, 12.79, 11.99, 12.3, 11.99, 11.99, 12.89, 12.89, 13.28, 13.28, 13.41, 13.41, 13.41, 11.98, 9.83, 10.73, 11.62, 11.62, 11.18, 10.28, 9.83, 7.27, 3.53, -0.0, 2.93, 4.65, 5.6, 7.24, 3.25, -0.0, -0.0, -0.0, -0.0, -0.0, -0.0, -0.0, -0.0, -1.09, -0.0, 1.77, 3.79, 6.6, 10.3, 9.08, 2.28, -0.0, 3.46, 3.81, 3.94, 2.72, 3.39, 5.39, 6.04, 6.6, 9.54, 10.88, 11.17, 10.75, 10.25, 11.09, 13.86, 0.0, 14.3, 13.41, 12.52, 10.4, 11.28, 12.39, 12.89, 11.6, 12.79, 14.16, 12.52, 10.73, 10.73, 9.33, -0.0, -6.2, -8.22, -8.53, -6.7, -4.48, -4.48, 13.02, 13.02, 13.02, 13.88, 14.31, 13.94, 13.94, 13.67, 13.57, 13.44, 13.07, 13.39, 13.81, 13.89, 14.71, 14.07, 14.07, 13.2, 12.27, 11.9, 12.42, 12.79, 13.81, 15.18, 15.18, 15.53, 14.22, 14.22, 13.86, 12.96, 11.62, 11.62, 12.07, 10.73, 10.28, 9.83, 8.91, 2.49, -0.0, -0.0, 3.68, 6.2, 5.0, 3.53, -0.0, -0.0, -0.0, -0.0, -0.0, -0.0, -0.0, -0.0, -0.0, -0.0, -0.0, 8.53, 8.53, 12.42, 11.44, 2.42, -0.0, 1.33, 3.85, 2.72, 2.81, 4.05, 4.26, 4.34, 6.57, 10.17, 14.5, 12.15, 12.13, 11.14, 11.4, 14.47, 4.95, 6.8, 11.8, 13.7, 13.01, 12.52, 12.52, 14.3, 12.04, 12.56, 14.03, 13.44, 10.75, 10.65, 9.77, 10.28, -0.0, -3.68, -5.95, -5.2, -4.32, -4.32, 13.15, 13.02, 13.02, 13.44, 13.57, 13.67, 13.67, 13.35, 13.35, 13.02, 13.07, 13.81, 13.81, 13.89, 14.71, 14.79, 14.79, 14.03, 13.97, 13.58, 13.2, 13.59, 14.84, 15.27, 15.71, 16.15, 15.71, 15.27, 14.84, 14.47, 13.79, 12.45, 12.07, 10.73, 10.28, 9.83, 9.75, 4.2, 3.53, 3.25, 3.39, 8.22, 7.59, 3.39, -0.0, -0.0, -0.0, -0.0, -0.0, -0.0, -0.0, -0.0, -0.0, -0.0, 8.94, 8.94, 9.83, 10.41, 10.12, 4.39, -0.0, 1.64, 2.93, 2.93, 2.93, 3.14, 3.36, 3.68, 7.44, 10.75, 11.7, 16.6, 14.1, 13.86, 14.3, 13.02, 8.93, 11.06, 12.22, 13.74, 14.11, 13.53, 12.45, 12.52, 10.8, 13.86, 13.86, 13.15, 11.64, 11.56, 11.0, 10.68, 11.18, -0.0, -0.0, -4.32, -4.32, -4.32, 13.15, 13.02, 13.02, 13.44, 13.2, 13.35, 13.35, 13.47, 12.99, 13.02, 13.48, 13.19, 13.19, 13.89, 13.99, 14.39, 14.79, 14.85, 15.19, 14.36, 13.97, 14.39, 14.71, 15.69, 15.84, 15.84, 15.84, 15.27, 15.27, 14.9, 14.9, 14.95, 13.63, 11.62, 10.28, 8.94, 9.64, 8.18, 5.0, 4.8, 5.7, 5.95, 7.59, 6.95, 2.97, -0.0, -0.0, -0.0, -0.0, -0.0, -0.0, -0.0, 6.32, 6.32, 8.49, 8.49, 8.06, 7.87, 6.45, 2.82, 1.14, 1.76, 3.98, 3.98, 3.82, 1.84, 2.23, 4.1, 8.66, 10.12, 13.07, 16.94, 18.73, 15.96, 16.99, 7.0, 8.2, 10.31, 11.95, 12.86, 13.54, 14.17, 13.77, 12.75, 11.51, 6.98, 11.6, 13.31, 13.41, 12.9, 12.35, 10.73, 7.9, 2.19, -0.0, -2.1, -3.53, -3.53, 13.25, 13.15, 13.57, 13.15, 12.79, 13.2, 13.35, 13.77, 12.99, 13.2, 13.48, 13.19, 13.59, 13.89, 13.99, 13.99, 14.24, 14.79, 14.85, 15.19, 14.79, 14.39, 15.27, 15.27, 15.41, 15.53, 15.53, 15.78, 15.78, 16.22, 16.71, 16.71, 15.83, 14.16, 8.85, 8.94, 9.29, 8.93, 4.6, 4.6, 4.8, 6.32, 6.95, 4.71, 6.64, 2.97, -0.0, -0.0, 4.0, 4.0, 4.0, 8.4, 8.4, 8.4, 8.4, 7.81, 6.95, 7.27, 5.75, 7.26, 5.75, 6.17, 6.95, 5.46, 2.39, -0.0, -0.0, 3.04, 7.78, 11.6, 13.86, 15.12, 17.05, 16.12, 6.47, 6.36, 9.61, 11.76, 13.15, 12.89, 12.89, 13.64, 13.52, 13.29, 12.79, 11.03, 6.97, 12.04, 13.31, 13.41, 12.07, 11.18, 10.0, 5.2, 2.28, -2.1, -3.53, -3.53, 13.5, 13.25, 13.57, 13.57, 12.79, 12.93, 13.35, 13.35, 13.77, 13.62, 13.7, 13.89, 13.59, 13.89, 13.59, 13.59, 13.74, 14.65, 14.79, 15.11, 14.71, 14.71, 14.84, 14.84, 15.34, 15.53, 15.96, 16.22, 16.22, 17.15, 17.15, 17.25, 17.25, 15.61, 12.31, 8.49, 8.22, 7.27, 5.95, 7.27, 4.4, 4.2, 7.6, 8.0, 6.32, 6.64, 5.21, 4.2, 4.2, 6.64, 6.64, 8.8, 8.8, 8.8, 6.95, 8.18, 8.18, 7.27, 7.59, 7.9, 7.9, 6.44, 7.27, 3.11, -0.0, -0.0, -0.0, 2.82, 8.93, 11.18, 15.65, 16.87, 19.88, 17.35, 10.89, 10.61, 13.39, 15.41, 16.97, 14.3, 13.91, 13.72, 13.49, 12.77, 12.96, 0.0, 0.0, 7.78, 11.16, 12.98, 13.41, 12.44, 10.79, 5.2, -0.0, -0.0, -2.71, -2.71, 13.55, 13.32, 13.25, 13.67, 12.93, 12.93, 13.35, 13.47, 13.89, 13.77, 13.43, 13.89, 13.99, 13.68, 13.29, 15.19, 13.19, 13.99, 13.99, 14.11, 14.53, 14.71, 13.99, 15.9, 14.61, 16.22, 12.98, 16.12, 16.54, 15.71, 16.7, 17.13, 16.8, 16.82, 15.58, 12.45, 8.99, 7.81, 8.18, 9.3, 9.2, 9.2, 9.75, 9.33, 9.33, 8.18, 8.18, 6.64, 6.64, 6.64, 6.95, 8.18, 9.33, 6.95, 6.95, 7.27, 8.18, 7.59, 7.9, 7.9, 7.59, 7.59, 5.7, 2.17, -0.0, -0.0, -0.0, 5.52, 8.8, 12.07, 13.8, 16.78, 21.92, 20.24, 17.71, 16.35, 16.09, 16.54, 17.41, 17.78, 14.3, 14.3, 13.86, 12.52, 12.96, 10.79, -3.04, 0.0, 7.19, 10.79, 13.86, 13.31, 11.91, 5.2, -0.0, -0.0, -1.91, -1.91, 13.39, 13.39, 13.32, 13.32, 13.25, 13.25, 13.67, 13.75, 13.89, 13.77, 13.62, 14.11, 14.3, 13.68, 13.99, 13.59, 12.65, 12.65, 13.58, 13.97, 15.61, 13.65, 13.1, 15.59, 15.2, 15.69, 15.36, 15.47, 16.48, 16.48, 16.54, 16.7, 17.1, 17.35, 16.9, 14.56, 12.3, 11.03, 9.63, 8.24, 8.67, 9.11, 9.11, 9.11, 8.37, 9.6, 8.8, 8.18, 7.81, 8.91, 8.91, 8.91, 6.64, 6.95, 6.32, 6.64, 7.59, 8.18, 8.55, 8.93, 8.55, 7.27, 3.11, -0.0, -0.0, -0.0, -0.0, 5.52, 8.55, 11.13, 12.89, 15.41, 22.06, 23.03, 18.67, 15.56, 13.39, 13.65, 15.08, 14.99, 15.11, 15.12, 14.73, 13.38, 12.07, 11.62, 10.73, 7.59, 11.62, 11.03, 12.96, 13.41, 12.39, 6.45, -0.0, -0.0, -2.28, -2.28, 13.39, 13.39, 13.39, 13.32, 13.32, 13.25, 13.25, 13.75, 14.18, 14.31, 13.77, 13.84, 14.3, 13.68, 13.99, 13.42, 12.95, 12.95, 11.12, 13.59, 15.61, 14.36, 14.36, 14.39, 15.52, 16.12, 15.71, 16.48, 17.02, 17.46, 17.53, 17.35, 17.43, 17.43, 16.66, 16.22, 14.47, 12.66, 11.28, 9.97, 9.11, 9.54, 9.54, 9.54, 8.79, 9.6, 8.8, 8.18, 8.91, 8.91, 8.48, 8.91, 6.64, 5.46, 5.7, 6.95, 8.55, 7.27, 8.93, 8.18, 6.95, -0.0, -0.0, -0.0, -0.0, -0.0, -0.0, 3.68, 7.9, 10.16, 11.6, 13.75, 19.72, 20.82, 18.21, 12.9, 10.87, 11.59, 12.57, 13.99, 15.01, 15.43, 15.17, 14.3, 13.41, 12.52, 11.84, 8.94, 11.28, 11.06, 11.95, 12.46, 12.52, 9.67, -0.0, -2.37, -3.68, -3.68, 13.44, 13.39, 13.39, 13.39, 13.32, 13.32, 13.32, 13.75, 14.18, 14.61, 14.31, 14.03, 14.11, 13.68, 13.68, 13.42, 13.34, 12.95, 12.74, 14.79, 15.46, 15.11, 14.39, 14.39, 15.52, 16.96, 17.1, 16.22, 16.22, 16.66, 17.36, 17.43, 17.43, 17.43, 16.9, 16.99, 15.65, 13.77, 12.42, 10.84, 9.89, 9.46, 9.03, 9.11, 8.37, 7.53, 9.97, 9.54, 8.91, 8.48, 8.48, 8.4, 6.32, 5.21, 6.95, 8.55, 8.93, 8.58, 8.93, 6.95, -0.0, -3.25, -0.0, -0.0, -0.0, -0.0, -0.0, 1.91, 4.58, 6.94, 7.79, 9.22, 15.33, 16.89, 1.5, 4.52, 8.68, 9.79, 9.67, 10.68, 12.37, 14.33, 15.38, 15.65, 15.2, 14.3, 13.72, 13.41, 12.92, 11.62, 11.21, 11.91, 12.27, 11.71, 3.68, -2.82, -2.28, -2.28, 13.44, 13.44, 13.44, 13.39, 13.32, 13.32, 13.75, 13.75, 14.18, 14.69, 14.61, 14.19, 14.24, 13.68, 13.68, 13.42, 13.34, 13.19, 13.13, 14.79, 15.68, 15.12, 14.11, 13.89, 15.11, 16.7, 17.13, 16.82, 16.71, 15.83, 16.47, 16.47, 16.54, 16.54, 16.54, 16.54, 16.09, 14.75, 12.86, 11.51, 10.62, 10.18, 9.74, 8.85, 7.74, 7.74, 9.54, 9.11, 8.94, 8.06, 8.48, 8.0, 6.32, 6.32, 7.81, 8.18, 7.27, 7.9, 7.9, -0.0, -6.64, -2.49, -0.0, -0.0, -0.0, -0.0, -0.0, -0.0, 1.84, 1.58, 3.96, 7.79, 20.75, 15.46, -7.9, -3.45, 3.47, 6.99, 8.16, 8.47, 9.49, 11.8, 14.21, 15.38, 15.91, 15.15, 14.68, 14.4, 13.28, 13.41, 12.52, 11.45, 11.71, 11.71, 8.22, -0.0, -2.82, -2.82, 13.44, 13.44, 13.44, 13.44, 13.39, 13.32, 13.32, 13.75, 14.18, 14.61, 14.69, 14.73, 14.44, 13.99, 13.68, 13.42, 13.74, 13.19, 13.99, 14.39, 14.79, 15.68, 14.65, 13.86, 14.11, 15.36, 16.82, 16.82, 16.82, 16.76, 15.87, 16.03, 16.09, 16.09, 16.09, 16.09, 16.09, 15.2, 13.41, 11.62, 10.28, 9.83, 10.14, 10.14, 8.85, 7.97, 9.83, 9.39, 8.94, 8.67, 8.48, 8.06, 7.07, 7.44, 7.44, 7.81, 6.01, 5.86, 8.94, 9.6, -3.8, -4.96, -0.0, -0.0, -0.0, -0.0, -0.0, -0.0, -0.0, -0.0, 5.7, 14.75, 23.59, 21.63, 17.94, 16.48, 4.81, 3.81, 5.99, 6.62, 7.89, 8.72, 10.65, 12.18, 12.79, 13.02, 13.02, 12.66, 13.59, 7.36, 9.17, 8.53, 9.66, 10.04, 8.22, 6.45, -0.0, -0.0, 13.44, 13.44, 13.44, 13.44, 13.39, 13.39, 13.32, 13.75, 14.18, 14.61, 14.42, 14.42, 14.6, 14.24, 13.99, 13.99, 13.74, 13.59, 13.59, 14.61, 14.61, 15.19, 15.68, 15.27, 14.7, 14.7, 15.96, 16.38, 16.82, 16.48, 16.76, 16.48, 15.65, 15.65, 16.09, 16.04, 16.01, 15.65, 14.3, 12.07, 10.28, 9.74, 9.7, 10.14, 9.83, 9.39, 8.49, 8.44, 8.73, 9.16, 8.48, 9.55, 8.24, 8.48, 8.67, 7.44, 6.32, 5.37, 7.15, 7.87, 3.11, -0.0, -2.83, -0.0, -0.0, -0.0, -0.0, 3.96, 6.71, 10.28, 11.06, 12.96, 18.56, 24.17, 20.81, 19.15, 18.52, 15.61, 7.32, 4.99, 6.24, 7.82, 9.82, 11.2, 10.99, 11.33, 11.6, 12.04, 9.48, 3.93, 6.8, 8.05, 9.62, 10.73, 9.3, 7.9, 3.53, 3.53, 13.23, 13.23, 13.44, 13.44, 13.44, 13.39, 13.39, 13.75, 14.18, 14.18, 14.42, 14.42, 14.73, 14.44, 13.99, 13.99, 13.74, 13.99, 13.99, 14.21, 14.21, 14.61, 15.85, 15.68, 15.27, 15.12, 15.12, 15.96, 16.38, 16.82, 16.76, 16.76, 16.48, 16.54, 16.04, 16.04, 16.03, 16.09, 15.65, 13.41, 11.11, 10.04, 9.21, 9.04, 9.89, 9.89, 9.54, 8.48, 8.56, 8.72, 8.72, 8.72, 9.13, 8.8, 8.0, 6.32, 6.01, 5.69, 6.32, 5.36, 5.9, 3.25, 2.83, -0.0, -0.0, -0.0, -0.0, 5.6, 9.6, 10.18, 10.73, 12.96, 14.42, 19.58, 23.59, 19.41, 18.79, 18.31, 12.87, 3.04, 4.51, 6.09, 8.22, 9.06, 9.76, 12.03, 12.89, 13.41, 8.05, 5.15, 9.12, 10.43, 11.37, 11.6, 9.7, 8.73, 8.73, 8.73, 13.23, 13.23, 13.23, 13.44, 13.44, 13.39, 13.39, 13.39, 13.75, 13.89, 14.42, 14.42, 14.73, 14.19, 14.24, 13.99, 13.99, 13.74, 13.99, 14.21, 14.21, 14.6, 15.02, 15.44, 15.69, 15.69, 15.27, 15.54, 15.96, 16.39, 16.39, 16.71, 16.76, 16.93, 16.49, 16.37, 16.49, 16.54, 16.44, 14.99, 13.27, 11.34, 9.6, 8.99, 9.2, 8.72, 8.99, 8.21, 8.0, 8.0, 8.4, 9.13, 9.13, 8.99, 8.8, 6.79, 6.79, 6.7, 5.37, 5.31, 5.63, 6.64, 7.59, 2.17, -0.0, -0.0, 2.28, 9.2, 9.45, 9.63, 10.91, 11.4, 13.7, 16.54, 18.61, 22.33, 19.68, 19.08, 16.04, 0.0, 1.9, 4.66, 6.4, 6.21, 7.51, 9.48, 12.79, 14.11, 11.09, 9.8, 12.39, 14.42, 13.81, 12.39, 11.33, 9.17, 8.82, 8.82, 13.23, 13.23, 13.23, 13.23, 13.39, 13.39, 13.39, 13.39, 13.75, 13.47, 13.99, 14.42, 14.11, 14.19, 14.03, 13.59, 13.99, 14.24, 13.99, 14.6, 14.6, 14.73, 14.73, 14.6, 15.38, 15.68, 15.61, 15.91, 16.35, 16.35, 16.31, 16.31, 16.76, 16.76, 16.94, 16.37, 16.49, 16.99, 16.9, 15.41, 13.7, 11.6, 9.58, 8.18, 8.12, 7.76, 8.82, 8.8, 8.4, 8.4, 8.72, 8.99, 9.4, 9.4, 9.8, 8.43, 8.0, 7.07, 5.69, 6.32, 6.98, 8.0, 6.95, -0.0, -0.0, -0.0, 8.94, 10.08, 9.7, 9.89, 10.91, 12.01, 12.52, 13.41, 15.93, 18.1, 22.26, 18.96, 15.27, 9.17, 0.0, 4.04, 7.11, 6.0, 5.4, 7.68, 10.18, 14.03, 14.03, 13.28, 13.59, 14.47, 15.47, 13.07, 11.88, 10.48, 9.69, 9.69, 13.23, 13.23, 13.23, 13.15, 13.15, 13.39, 13.39, 13.82, 13.75, 13.75, 13.89, 14.42, 14.53, 14.38, 14.6, 14.28, 13.59, 13.84, 14.03, 14.19, 14.6, 14.73, 14.73, 15.04, 14.95, 15.25, 15.25, 15.91, 16.35, 16.49, 16.49, 16.49, 16.31, 16.35, 16.37, 16.37, 16.5, 16.99, 16.92, 15.84, 14.3, 11.72, 9.67, 8.0, 7.64, 8.18, 9.6, 10.62, 10.62, 8.58, 8.99, 8.99, 8.99, 8.99, 9.38, 9.8, 9.96, 9.2, 7.81, 7.81, 8.0, 8.6, 4.83, -0.0, -0.0, 3.82, 7.26, 9.75, 8.8, 10.28, 11.11, 12.47, 12.52, 12.3, 12.79, 15.69, 18.44, 18.78, 18.17, 17.33, 12.52, 2.63, 6.43, 7.5, 6.43, 5.8, 7.19, 13.15, 14.3, 14.3, 14.03, 13.7, 12.81, 12.89, 12.09, 10.73, 10.37, 10.37, 13.15, 13.15, 13.15, 13.15, 13.15, 13.15, 13.39, 13.82, 13.82, 13.47, 13.47, 14.42, 14.11, 14.38, 15.02, 14.44, 14.28, 13.84, 13.84, 14.03, 14.6, 14.73, 15.04, 15.04, 15.3, 15.3, 14.86, 15.46, 15.91, 16.05, 16.05, 16.05, 15.91, 15.91, 16.35, 16.37, 16.5, 16.54, 16.93, 16.66, 14.71, 11.9, 10.41, 8.18, 6.7, 8.54, 10.8, 12.25, 12.25, 11.44, 10.38, 8.72, 9.13, 9.13, 9.55, 9.96, 10.28, 10.18, 9.6, 9.54, 8.85, 8.0, 3.15, -0.0, -0.0, -0.0, 3.92, 7.24, 9.39, 6.95, 11.18, 11.21, 13.05, 16.5, 14.6, 14.55, 15.41, 15.27, 17.79, 20.05, 19.67, 17.39, 12.01, 10.58, 10.36, 11.44, 12.39, 13.15, 13.86, 14.11, 13.75, 12.42, 11.8, 12.73, 12.45, 11.93, 11.09, 11.09, 12.72, 12.72, 13.15, 13.15, 13.15, 13.15, 13.39, 13.82, 13.82, 14.25, 13.89, 13.47, 14.11, 14.11, 14.38, 14.44, 14.7, 14.7, 14.24, 14.44, 14.6, 15.04, 15.04, 15.04, 15.3, 15.3, 15.05, 14.6, 15.02, 15.61, 16.05, 15.61, 15.49, 15.46, 15.68, 15.93, 16.37, 16.54, 16.54, 16.66, 14.46, 12.16, 10.79, 9.38, 8.17, 9.45, 12.14, 13.28, 12.79, 11.99, 10.4, 8.82, 8.82, 8.82, 9.24, 9.55, 10.28, 10.7, 10.18, 10.58, 9.26, 8.91, 7.15, -0.0, -4.96, -4.2, -0.0, 4.4, 8.03, 9.75, 8.8, 8.73, 11.02, 16.78, 19.89, 17.49, 14.53, 12.5, 12.96, 18.47, 21.44, 20.95, 17.91, 14.56, 15.31, 15.87, 15.53, 15.2, 13.86, 13.15, 12.85, 11.99, 11.53, 11.1, 12.0, 12.29, 11.07, 11.07, 12.72, 12.72, 12.72, 13.15, 13.15, 13.15, 13.39, 13.82, 13.82, 14.25, 13.89, 13.89, 13.99, 14.53, 14.38, 14.6, 14.84, 15.12, 15.12, 15.27, 15.38, 15.47, 15.04, 15.04, 15.3, 15.3, 15.05, 14.16, 16.01, 14.71, 15.46, 15.93, 15.93, 15.46, 15.25, 15.68, 15.93, 16.49, 16.54, 16.22, 14.46, 13.02, 12.11, 10.38, 9.85, 10.78, 12.51, 13.86, 12.62, 11.39, 9.36, 8.4, 8.4, 8.4, 8.82, 9.13, 9.85, 10.28, 10.28, 10.96, 10.62, 9.26, 6.01, 2.69, -2.83, -6.01, -1.95, 5.21, 8.03, 8.93, 8.18, 8.55, 11.5, 14.65, 19.42, 21.61, 15.54, 3.96, 7.96, 13.75, 18.54, 18.78, 17.43, 16.03, 16.48, 16.48, 16.99, 16.09, 14.27, 12.83, 12.39, 11.12, 10.73, 11.44, 11.64, 12.09, 11.17, 11.17, 12.72, 12.72, 12.72, 13.39, 13.39, 13.39, 13.39, 13.82, 13.88, 14.25, 13.99, 13.99, 13.99, 13.99, 14.53, 14.73, 14.44, 14.84, 14.7, 15.27, 15.38, 15.47, 15.47, 15.3, 14.86, 14.86, 15.05, 14.16, 13.72, 15.57, 14.71, 15.49, 15.93, 15.91, 15.91, 15.91, 15.91, 16.49, 16.54, 16.27, 14.79, 13.39, 12.5, 11.21, 10.35, 11.28, 12.51, 13.02, 12.39, 10.58, 8.55, 8.14, 8.4, 8.4, 8.82, 9.24, 9.24, 9.92, 10.56, 11.0, 10.52, 7.28, 6.64, 4.83, -0.0, -1.95, -0.0, 2.69, 7.87, 8.93, 8.23, 9.86, 11.4, 14.16, 18.91, 24.77, 18.28, 0.0, 0.0, 10.97, 15.94, 16.52, 16.09, 16.54, 16.92, 17.82, 17.82, 16.53, 14.3, 12.81, 11.62, 9.66, 9.84, 11.28, 12.13, 11.8, 11.29, 11.29, 12.72, 12.72, 12.72, 12.96, 13.39, 13.39, 13.39, 13.82, 13.88, 14.31, 14.25, 14.42, 13.99, 13.99, 14.11, 14.38, 14.73, 14.95, 14.7, 15.12, 14.86, 15.81, 15.47, 15.74, 14.9, 14.86, 15.05, 14.6, 14.6, 14.71, 14.71, 15.16, 15.61, 15.49, 15.93, 15.91, 15.91, 16.05, 16.54, 15.96, 14.79, 13.76, 13.59, 12.18, 11.28, 11.03, 11.76, 12.39, 12.39, 10.99, 8.95, 8.55, 8.55, 8.82, 9.24, 9.24, 9.75, 9.97, 10.12, 10.56, 11.03, 8.43, 6.32, 6.64, 2.69, -0.0, -0.0, 3.6, 6.64, 8.03, 7.4, 9.67, 11.95, 13.41, 17.88, 23.19, 20.19, 17.92, 14.79, 9.61, 13.23, 14.84, 16.36, 16.96, 16.99, 17.37, 17.75, 15.98, 13.84, 12.47, 10.35, 7.82, 8.85, 10.79, 11.53, 11.8, 11.44, 11.44, 12.72, 12.72, 12.72, 12.96, 13.39, 13.39, 13.39, 13.82, 14.31, 14.31, 14.75, 14.42, 14.42, 13.99, 13.99, 14.23, 14.11, 14.19, 14.42, 14.7, 14.86, 15.02, 15.47, 15.47, 15.34, 14.9, 15.07, 14.6, 14.6, 15.16, 15.17, 15.17, 15.17, 15.17, 15.51, 15.49, 16.05, 16.09, 16.54, 16.05, 15.06, 14.39, 13.59, 12.6, 11.71, 11.03, 11.39, 12.21, 12.21, 11.8, 10.08, 9.66, 9.24, 9.24, 9.24, 9.24, 9.75, 9.75, 9.49, 10.2, 10.4, 9.08, 6.64, 6.64, 4.83, 2.17, 1.95, 2.06, 5.36, 7.21, 7.76, 9.46, 11.6, 13.28, 15.62, 17.64, 19.51, 18.04, 19.13, 17.3, 12.5, 13.54, 15.36, 16.39, 16.09, 16.08, 16.04, 14.27, 13.41, 12.04, 7.51, 7.24, 8.85, 10.01, 11.99, 12.87, 11.64, 11.64, 12.72, 12.72, 12.72, 12.72, 13.39, 13.39, 13.82, 13.82, 14.31, 14.31, 14.75, 14.75, 14.42, 13.99, 13.99, 14.51, 14.23, 14.11, 14.19, 14.84, 14.7, 14.86, 15.02, 15.47, 15.34, 14.9, 15.07, 14.62, 14.71, 15.16, 15.16, 15.17, 14.72, 14.72, 14.72, 15.17, 15.65, 15.65, 16.05, 15.68, 14.65, 14.65, 14.7, 13.01, 11.71, 10.92, 10.99, 11.8, 12.6, 12.18, 10.92, 9.66, 9.13, 8.8, 8.95, 8.95, 9.49, 9.2, 9.2, 9.81, 10.18, 9.16, 7.68, 5.69, 5.31, 5.21, 1.95, 2.69, 6.32, 6.32, 7.59, 7.27, 11.16, 12.74, 14.31, 15.49, 16.85, 18.76, 20.17, 22.58, 19.2, 14.24, 11.33, 13.39, 13.63, 13.82, 13.86, 13.41, 9.17, 5.8, 9.17, 10.41, 8.85, 12.3, 12.04, 12.72, 12.74, 12.74, 12.3, 12.3, 12.72, 12.72, 13.15, 13.15, 13.57, 13.57, 13.99, 14.31, 14.75, 14.75, 14.75, 14.42, 13.99, 14.08, 14.23, 14.23, 14.42, 14.95, 14.84, 14.24, 14.86, 15.02, 15.04, 14.9, 15.07, 14.62, 14.72, 15.17, 15.16, 15.17, 14.72, 14.72, 14.72, 14.75, 14.75, 15.2, 15.61, 15.68, 14.86, 14.86, 14.42, 12.58, 9.66, 10.08, 10.92, 11.76, 12.18, 12.18, 11.34, 10.17, 9.2, 8.43, 8.63, 8.63, 9.2, 9.2, 9.27, 9.43, 10.18, 9.42, 7.68, 6.01, 6.01, 6.64, 3.6, 3.8, 5.36, 4.6, 4.66, 6.17, 10.01, 13.9, 16.07, 14.25, 14.75, 17.43, 20.56, 22.78, 20.95, 16.93, 10.75, 8.31, 11.53, 13.44, 13.86, 13.41, 9.48, 9.48, 11.6, 11.87, 12.14, 12.3, 12.96, 12.96, 12.96, 13.01, 12.3, 12.3, 12.72, 12.72, 13.15, 13.15, 13.57, 13.57, 13.99, 14.08, 14.75, 14.75, 14.51, 14.51, 14.42, 14.08, 14.08, 14.23, 14.51, 14.84, 14.95, 14.84, 14.24, 14.86, 14.6, 14.61, 14.47, 14.62, 14.62, 14.72, 15.17, 14.72, 14.72, 14.72, 14.75, 14.75, 14.3, 15.2, 15.17, 15.25, 14.84, 15.27, 13.99, 11.45, 9.33, 10.08, 10.92, 11.76, 12.6, 11.8, 11.39, 10.2, 9.42, 8.63, 8.63, 8.63, 9.2, 9.2, 9.65, 9.43, 9.76, 9.42, 8.38, 6.01, 5.69, 5.36, 3.8, 2.54, 2.69, 2.33, 3.52, 5.29, 9.27, 12.27, 16.48, 17.02, 13.82, 16.06, 18.88, 20.23, 18.33, 16.76, 7.8, 0.0, 5.15, 11.88, 12.87, 12.72, 13.41, 12.96, 12.96, 12.96, 12.52, 12.52, 12.52, 12.52, 12.44, 12.96, 12.3, 12.3, 12.3, 12.72, 13.15, 13.15, 13.57, 13.57, 13.99, 14.08, 14.51, 14.51, 14.51, 14.51, 14.42, 13.99, 14.08, 14.08, 14.58, 14.51, 14.84, 14.95, 14.84, 14.24, 14.44, 14.19, 14.18, 14.47, 14.03, 14.18, 14.72, 14.72, 14.72, 14.72, 14.28, 14.75, 14.3, 14.3, 15.17, 14.81, 14.84, 14.84, 14.37, 11.76, 10.28, 11.14, 12.62, 12.79, 13.02, 12.62, 11.38, 10.6, 9.42, 9.03, 8.63, 8.63, 9.2, 9.6, 9.43, 9.43, 9.76, 9.42, 7.41, 6.64, 6.32, 4.2, 3.15, 3.15, 2.69, 3.52, 3.52, 6.01, 9.08, 10.18, 13.15, 15.99, 18.19, 17.53, 16.62, 15.65, 14.84, 0.0, 0.0, 0.0, 0.0, 4.38, 8.05, 7.44, 5.8, 5.6, 11.2, 11.87, 11.2, 12.14, 11.87, 11.61, 11.45, 12.44, 12.3, 12.3, 12.3, 12.72, 12.72, 13.15, 13.15, 13.57, 13.57, 13.99, 14.08, 14.08, 14.51, 14.51, 13.99, 13.99, 14.08, 14.08, 14.15, 14.58, 14.51, 14.42, 14.53, 14.84, 14.24, 14.44, 13.62, 13.35, 13.75, 14.03, 14.03, 14.64, 14.64, 14.64, 14.28, 14.28, 14.3, 13.86, 14.27, 14.37, 13.99, 14.75, 13.94, 12.2, 11.11, 12.04, 13.84, 14.24, 13.43, 13.02, 12.79, 11.55, 9.77, 8.95, 8.95, 8.95, 9.49, 9.42, 9.05, 9.43, 10.18, 9.89, 9.77, 6.95, 5.63, 5.63, 5.1, 2.28, 1.4, 2.58, 5.21, 6.01, 7.59, 8.22, 9.48, 13.59, 17.31, 21.4, 21.85, 16.87, 13.02, 14.51, -8.8, -5.16, 0.0, 0.0, 0.0, -3.14, 0.0, 0.0, 6.94, 7.51, 8.85, 9.77, 10.41, 9.82, 9.82, 9.82, 11.87, 11.87, 12.3, 12.3, 12.72, 12.72, 13.15, 13.57, 13.57, 13.57, 14.08, 14.08, 14.08, 14.08, 14.25, 13.99, 13.99, 14.08, 14.08, 14.15, 14.58, 14.51, 14.69, 14.61, 14.42, 14.42, 13.62, 13.2, 13.35, 13.32, 13.32, 13.59, 14.03, 14.19, 14.19, 13.83, 13.83, 13.41, 13.72, 13.57, 13.57, 13.88, 13.5, 12.24, 11.54, 12.82, 13.62, 13.84, 13.44, 13.15, 12.72, 11.45, 9.24, 8.82, 8.95, 8.95, 9.77, 9.42, 9.81, 9.43, 9.81, 9.89, 9.17, 7.27, 5.9, 5.63, 5.63, 2.28, 1.4, 2.28, 5.86, 6.32, 6.44, 5.72, 8.85, 10.86, 16.8, 22.37, 24.61, 21.4, 19.59, 19.47, 20.75, 6.5, -7.8, -8.05, -10.01, -9.17, -4.1, 0.0, 3.04, 4.65, 6.44, 7.82, 8.53, 9.27, 9.27, 9.27, 11.87, 11.87, 12.3, 12.3, 12.72, 12.72, 13.15, 13.15, 13.15, 13.57, 13.65, 14.08, 14.08, 14.31, 14.25, 14.25, 13.99, 14.08, 14.08, 14.15, 14.79, 14.79, 14.79, 14.75, 14.69, 14.53, 14.1, 13.57, 13.15, 13.25, 12.82, 12.89, 13.11, 13.59, 14.18, 13.38, 13.38, 13.41, 13.25, 12.72, 13.15, 13.44, 13.07, 11.8, 11.11, 12.39, 13.57, 13.57, 12.72, 12.14, 11.71, 10.84, 8.82, 8.82, 9.24, 9.33, 9.77, 9.42, 9.81, 9.81, 10.2, 10.35, 9.89, 9.42, 7.27, 5.9, 5.63, 1.93, 1.47, 4.0, 5.59, 5.59, 5.21, 6.58, 8.59, 10.94, 13.56, 18.79, 20.83, 21.52, 21.12, 20.55, 22.56, 22.83, -9.0, -13.59, -11.2, -9.17, 0.0, 0.0, 2.45, 3.96, 5.4, 6.94, 6.7, 10.8, 10.8, 10.8, 11.87, 11.87, 12.3, 12.3, 12.72, 12.72, 13.15, 13.15, 13.57, 13.57, 13.65, 14.08, 14.08, 14.31, 14.31, 14.25, 14.25, 13.99, 14.08, 14.08, 14.79, 14.79, 14.79, 14.79, 14.94, 14.94, 14.47, 14.16, 13.55, 13.11, 13.11, 13.11, 13.11, 13.28, 13.29, 13.38, 12.94, 13.41, 13.07, 12.72, 12.72, 13.01, 12.63, 11.33, 10.89, 11.54, 12.72, 12.72, 13.01, 11.71, 10.84, 9.97, 8.4, 8.82, 9.33, 9.49, 9.36, 9.42, 9.81, 9.81, 9.81, 9.97, 10.35, 9.17, 8.53, 5.9, 5.36, 4.6, 3.49, 4.2, 6.64, 4.0, 5.21, 7.9, 9.32, 10.88, 12.72, 13.52, 17.01, 16.48, 18.41, 21.97, 24.89, 22.62, 21.9, -16.01, -12.87, -3.14, 0.0, 2.45, 3.14, 3.82, 4.65, 0.0, -12.07, -11.62, -11.62, -11.62, 11.87, 11.87, 12.3, 12.3, 12.3, 12.72, 12.72, 13.15, 13.57, 13.57, 13.65, 13.65, 14.36, 14.31, 14.31, 14.25, 14.25, 13.99, 14.08, 14.08, 14.31, 14.79, 14.79, 14.97, 14.97, 15.09, 14.65, 14.28, 13.83, 13.83, 13.38, 12.85, 12.94, 12.94, 12.94, 12.94, 12.96, 12.93, 13.07, 12.3, 12.3, 12.58, 12.63, 11.33, 10.89, 11.54, 12.63, 12.63, 12.81, 11.93, 10.84, 9.54, 8.67, 9.11, 9.33, 8.95, 9.36, 9.77, 10.17, 10.17, 10.17, 9.58, 10.35, 9.53, 8.41, 7.27, 6.32, 5.1, 4.83, 4.2, 4.83, 5.46, 6.64, 8.18, 9.32, 10.46, 11.99, 13.05, 13.02, 13.61, 16.14, 20.13, 24.62, 22.31, 20.79, 19.99, -10.41, -3.25, 0.0, 3.14, 3.04, 0.0, -3.82, -12.07, -11.62, -12.07, -12.07, -12.07, 11.87, 11.87, 12.3, 12.3, 12.72, 12.72, 12.72, 13.15, 13.15, 13.57, 13.65, 13.65, 14.31, 14.36, 14.31, 14.31, 14.25, 14.25, 14.25, 14.25, 14.31, 14.79, 14.79, 14.97, 15.09, 15.17, 14.73, 14.28, 13.83, 13.83, 13.39, 12.94, 12.94, 12.52, 12.52, 12.49, 12.52, 12.48, 12.63, 12.3, 12.3, 12.58, 12.81, 11.76, 10.89, 11.76, 12.2, 12.37, 12.37, 11.49, 10.41, 9.54, 8.67, 9.11, 9.24, 8.95, 9.36, 9.77, 10.17, 10.17, 9.77, 10.0, 9.67, 10.04, 8.75, 7.27, 6.32, 4.96, 5.46, 6.17, 3.65, 5.06, 7.68, 8.54, 9.6, 10.0, 10.8, 10.94, 11.16, 10.65, 13.96, 19.34, 22.85, 23.14, 21.78, 20.79, 0.0, -6.9, -3.14, -11.45, -10.41, -11.2, -11.71, -11.62, -11.62, -12.07, -12.07, -12.07, 11.87, 11.87, 12.3, 12.3, 12.3, 12.72, 13.15, 13.15, 13.15, 13.15, 13.57, 13.65, 13.65, 14.36, 14.36, 14.31, 14.31, 14.25, 14.25, 13.82, 13.88, 14.36, 14.97, 14.97, 15.09, 15.17, 14.73, 14.28, 13.83, 13.83, 13.39, 13.39, 12.94, 12.52, 12.49, 12.05, 12.07, 12.48, 12.2, 11.87, 12.14, 12.37, 12.37, 11.76, 10.89, 11.8, 12.39, 12.37, 11.93, 11.02, 10.41, 9.97, 9.11, 8.67, 8.82, 9.24, 9.75, 9.75, 10.18, 10.08, 10.08, 9.6, 10.16, 10.04, 9.3, 7.59, 6.64, 6.64, 5.46, 6.95, 7.27, 5.9, 8.03, 8.37, 8.37, 8.58, 9.67, 9.53, 9.64, 9.92, 11.6, 17.11, 19.08, 21.55, 22.44, 21.23, 19.22, -9.17, -12.52, -12.07, -11.84, -10.79, -11.4, -10.84, -11.71, -12.52, -12.52, -12.52, 11.87, 11.87, 12.3, 12.3, 12.3, 12.72, 13.15, 13.15, 13.15, 13.57, 13.57, 13.57, 14.08, 14.08, 14.15, 14.15, 14.08, 14.25, 14.25, 14.25, 14.25, 14.31, 14.97, 15.09, 15.09, 14.73, 14.73, 14.28, 13.83, 13.39, 13.39, 13.38, 12.94, 12.49, 12.49, 12.05, 12.07, 11.95, 11.76, 11.87, 12.14, 12.37, 12.37, 11.93, 11.51, 12.39, 12.83, 12.39, 11.49, 10.6, 10.14, 9.7, 9.54, 9.11, 8.91, 9.33, 9.33, 9.75, 9.75, 10.08, 10.08, 9.96, 9.77, 10.55, 8.82, 8.38, 7.68, 6.64, 6.95, 8.4, 8.8, 6.95, 8.23, 8.24, 8.15, 8.58, 8.94, 8.75, 8.85, 9.59, 10.98, 13.34, 16.94, 19.41, 23.14, 24.56, -7.69, -12.79, -13.41, 12.96, -8.53, -10.04, -12.52, -12.96, -12.14, -12.96, -12.96, -12.96, 11.87, 11.87, 12.3, 12.3, 12.3, 12.72, 13.15, 13.15, 13.15, 13.57, 13.57, 13.57, 14.08, 14.08, 14.15, 14.15, 14.08, 14.31, 14.25, 14.25, 14.25, 14.31, 14.94, 15.08, 14.64, 14.64, 14.64, 14.19, 13.75, 13.75, 13.31, 13.38, 12.94, 12.49, 12.49, 12.05, 12.07, 11.93, 11.76, 11.71, 11.91, 11.93, 11.93, 11.95, 11.95, 12.48, 12.93, 12.48, 11.49, 10.6, 10.16, 9.72, 9.54, 8.48, 8.91, 8.91, 9.54, 9.54, 9.54, 9.92, 9.66, 9.55, 9.8, 10.16, 10.24, 9.08, 7.27, 6.95, 8.23, 8.8, 9.13, 8.91, 8.4, 8.23, 7.59, 8.49, 8.41, 7.65, 8.53, 10.12, 10.73, 11.03, 13.39, 18.22, 25.25, 22.83, 14.75, -12.52, -13.01, 11.53, 13.86, 13.41, 9.48, -0.0, -0.0, -0.0, -0.0, -0.0, 11.87, 11.79, 11.79, 12.21, 12.21, 12.3, 12.72, 13.15, 13.15, 13.57, 13.57, 13.99, 13.99, 14.08, 14.08, 14.15, 14.08, 14.31, 14.25, 14.25, 14.25, 14.25, 14.5, 14.5, 14.5, 14.64, 14.64, 14.19, 13.75, 13.75, 13.31, 13.31, 12.94, 12.94, 12.42, 12.04, 12.07, 11.49, 11.28, 11.28, 11.91, 11.93, 12.03, 11.59, 12.04, 12.48, 12.93, 12.48, 12.03, 11.14, 10.16, 9.7, 9.54, 8.67, 9.11, 9.11, 9.11, 9.54, 9.49, 9.49, 9.92, 9.85, 9.8, 10.21, 10.8, 10.09, 8.58, 8.23, 8.03, 8.18, 7.81, 7.33, 6.64, 4.4, 6.17, 7.59, 7.9, 8.22, 8.75, 10.73, 10.94, 11.41, 12.56, 17.13, 29.39, 22.29, 15.18, -12.07, -12.52, 14.3, 14.75, 14.11, 8.58, 2.72, 2.2, 4.24, 4.24, 4.24, 11.79, 11.79, 11.79, 12.21, 12.21, 12.21, 12.72, 13.15, 13.15, 13.57, 13.57, 13.99, 13.99, 14.08, 14.08, 14.15, 14.08, 14.31, 14.25, 14.25, 14.25, 14.25, 14.25, 14.5, 14.5, 14.5, 14.06, 14.19, 13.75, 13.31, 13.31, 12.86, 12.94, 12.86, 12.42, 12.04, 12.07, 11.49, 11.28, 11.46, 11.46, 11.59, 11.59, 11.59, 11.59, 11.59, 12.04, 12.04, 12.03, 11.14, 10.6, 10.02, 9.54, 9.15, 8.67, 8.82, 9.26, 9.26, 9.06, 9.49, 9.49, 9.85, 9.75, 10.21, 10.4, 10.8, 10.35, 10.38, 8.82, 6.95, 7.56, 7.27, 5.7, 4.8, 5.7, 6.7, 7.9, 8.49, 9.77, 10.16, 10.8, 11.2, 13.28, 24.78, 29.84, 20.95, 16.48, -12.96, -9.17, 0.0, 13.99, 10.43, 5.48, 2.35, 2.28, 4.38, 4.38, 4.38, 11.79, 11.79, 11.79, 11.79, 12.21, 12.21, 12.63, 12.72, 13.15, 13.15, 13.57, 13.57, 13.99, 14.08, 14.08, 14.15, 14.08, 14.08, 14.25, 14.69, 14.25, 14.25, 14.25, 14.47, 14.47, 14.03, 14.06, 14.19, 13.75, 13.31, 13.31, 12.86, 12.86, 12.42, 12.42, 12.04, 12.04, 11.49, 11.46, 11.02, 11.59, 11.62, 11.62, 11.62, 11.18, 11.15, 11.59, 11.59, 11.59, 11.14, 10.6, 10.02, 9.58, 9.72, 9.28, 8.82, 8.82, 8.82, 9.24, 9.06, 9.06, 9.42, 9.75, 10.18, 10.21, 10.4, 11.3, 9.7, 8.23, 7.68, 7.68, 6.58, 6.87, 5.95, 5.75, 6.7, 7.9, 8.49, 9.3, 9.38, 10.0, 11.2, 20.87, 23.56, 29.34, 20.34, -16.99, -13.86, -13.41, -13.59, -6.6, 2.89, 2.43, 2.81, 4.52, 4.52, 4.52, 4.52, 11.79, 11.79, 11.79, 11.79, 11.79, 12.21, 12.63, 13.15, 13.15, 13.15, 13.15, 13.57, 13.99, 14.08, 14.08, 14.08, 14.15, 14.08, 14.31, 14.69, 14.69, 14.18, 14.25, 14.47, 14.03, 14.03, 14.03, 13.62, 13.62, 13.31, 13.31, 12.86, 12.86, 12.42, 12.41, 12.07, 12.03, 11.49, 11.46, 11.14, 11.18, 11.62, 11.62, 11.18, 11.18, 10.73, 10.73, 10.73, 10.7, 10.6, 10.6, 10.02, 9.72, 9.72, 9.7, 9.26, 8.82, 8.8, 8.8, 9.24, 9.24, 8.99, 9.42, 9.75, 10.6, 11.03, 10.4, 9.7, 8.58, 7.87, 6.95, 7.27, 7.27, 7.59, 7.59, 8.23, 7.9, 9.09, 9.3, 9.77, 10.4, 11.14, 18.76, 24.6, 28.12, 20.13, -15.18, -13.41, -13.32, -12.27, -5.48, 1.83, 3.69, 5.81, 5.63, 6.4, 6.4, 6.4, 11.79, 11.79, 11.79, 11.79, 11.79, 11.79, 12.21, 12.72, 12.72, 12.72, 13.15, 13.28, 13.28, 14.08, 14.08, 14.08, 14.15, 14.08, 14.08, 14.69, 14.61, 14.61, 14.61, 14.25, 14.03, 14.03, 14.03, 13.59, 13.62, 13.18, 12.86, 12.86, 12.42, 12.42, 12.49, 12.07, 12.03, 11.49, 11.14, 11.18, 11.18, 11.18, 11.18, 11.18, 10.73, 10.73, 10.73, 10.73, 10.25, 10.16, 10.16, 10.16, 10.16, 9.72, 9.7, 9.26, 9.26, 8.8, 8.8, 8.8, 9.24, 8.99, 9.42, 9.75, 10.18, 10.6, 10.46, 9.7, 8.55, 7.87, 7.27, 7.27, 8.58, 7.9, 8.94, 8.23, 8.8, 8.55, 9.6, 9.38, 10.38, 12.89, 15.36, 22.41, 26.52, 29.54, 16.22, -12.51, -13.32, -9.22, -5.34, -0.0, 4.95, 6.8, 6.6, 7.36, 7.36, 7.36, 11.79, 11.79, 11.79, 11.79, 12.21, 12.21, 12.21, 12.21, 12.72, 12.45, 12.87, 13.28, 13.28, 13.7, 13.81, 14.08, 14.08, 14.15, 14.08, 13.99, 14.61, 14.61, 14.61, 14.18, 13.82, 14.03, 14.03, 13.59, 13.15, 13.15, 12.74, 12.3, 12.3, 12.41, 12.04, 12.07, 12.03, 11.59, 11.62, 11.18, 11.18, 11.18, 11.18, 11.18, 10.73, 10.73, 10.73, 10.26, 10.25, 10.16, 10.25, 10.25, 10.16, 9.72, 9.7, 9.7, 9.26, 8.8, 8.8, 8.8, 8.8, 8.99, 9.42, 10.08, 10.04, 10.47, 10.05, 9.86, 9.2, 8.23, 8.23, 9.6, 8.58, 8.94, 9.2, 8.82, 8.8, 9.13, 9.45, 10.18, 10.84, 11.54, 13.47, 18.09, 23.91, 29.87, 27.14, 16.54, -14.75, -10.75, -6.8, -1.38, 4.95, 7.49, 7.06, 7.92, 7.92, 7.92, 11.79, 11.79, 11.79, 11.79, 12.21, 12.21, 12.21, 12.33, 12.45, 12.45, 12.87, 12.87, 13.28, 13.7, 13.7, 13.81, 13.81, 13.81, 13.81, 14.51, 14.42, 14.61, 14.61, 14.18, 13.75, 13.82, 13.39, 13.59, 13.15, 12.71, 12.71, 12.3, 12.27, 11.96, 12.04, 12.07, 11.62, 11.62, 11.62, 11.18, 11.18, 11.18, 11.18, 10.73, 10.73, 10.73, 10.73, 10.26, 10.26, 10.26, 10.25, 9.81, 10.25, 9.72, 9.7, 9.7, 9.26, 9.24, 8.8, 8.36, 8.8, 8.77, 9.21, 9.64, 9.64, 9.6, 9.97, 9.97, 9.75, 9.6, 9.6, 9.6, 8.58, 8.94, 9.2, 8.82, 9.13, 8.72, 9.33, 10.56, 10.84, 11.03, 13.32, 16.76, 21.83, 24.46, 25.13, 21.54, 15.41, 13.99, -7.0, -5.99, 1.56, 6.47, 7.28, 8.68, 8.68, 8.68, 11.79, 11.79, 11.79, 11.79, 11.92, 11.92, 11.92, 12.33, 12.45, 12.45, 12.87, 12.87, 13.28, 13.28, 13.7, 13.28, 13.39, 13.81, 13.81, 13.81, 14.42, 14.61, 14.61, 14.61, 13.75, 13.32, 13.39, 13.39, 12.96, 12.71, 12.71, 12.27, 12.27, 11.96, 12.07, 12.07, 12.07, 11.62, 11.59, 11.14, 11.14, 11.15, 10.73, 10.73, 10.73, 10.73, 10.28, 10.28, 10.28, 10.28, 10.25, 9.81, 9.81, 9.8, 9.7, 9.26, 9.26, 9.24, 9.24, 8.8, 8.36, 8.33, 8.77, 8.77, 9.21, 9.16, 9.6, 9.54, 9.46, 9.7, 9.7, 9.6, 9.6, 9.2, 9.2, 9.55, 9.75, 9.7, 9.83, 10.68, 11.0, 11.21, 13.11, 16.44, 20.54, 22.34, 22.67, 20.29, 18.42, 15.69, 15.07, -3.79, -1.94, 5.09, 8.05, 10.47, 10.47, 10.47, 11.79, 11.79, 11.5, 11.5, 11.5, 11.92, 11.92, 11.92, 12.45, 12.45, 12.87, 12.87, 13.28, 13.28, 13.28, 13.28, 13.39, 13.39, 13.81, 13.81, 13.99, 14.31, 14.61, 13.89, 13.47, 13.32, 13.32, 12.96, 12.96, 12.53, 12.53, 12.09, 11.84, 11.96, 12.04, 12.07, 12.07, 11.59, 11.59, 11.59, 11.14, 11.15, 11.15, 10.73, 10.73, 10.73, 10.28, 10.28, 10.28, 10.28, 9.83, 9.81, 9.81, 9.8, 9.8, 9.36, 9.36, 8.9, 9.24, 8.8, 8.8, 8.36, 8.36, 8.8, 8.9, 9.34, 9.33, 9.32, 9.32, 9.74, 9.7, 10.84, 10.84, 10.6, 9.54, 10.08, 10.14, 10.28, 10.18, 8.93, 10.0, 11.21, 13.11, 15.99, 20.03, 21.76, 20.3, 19.17, 17.73, 17.58, 15.42, 9.92, -3.24, 2.34, 9.92, 11.63, 11.63, 11.63, 11.5, 11.5, 11.92, 11.92, 11.92, 11.92, 11.92, 11.92, 12.04, 12.45, 12.45, 12.87, 13.28, 13.28, 13.28, 13.28, 13.28, 13.39, 13.39, 13.81, 13.99, 13.89, 13.89, 13.89, 13.47, 13.05, 13.32, 12.89, 12.96, 12.53, 12.53, 12.09, 11.84, 11.96, 12.04, 11.59, 11.59, 11.59, 11.59, 11.14, 11.14, 11.14, 11.15, 10.73, 10.73, 10.73, 10.73, 10.28, 10.28, 10.28, 9.81, 9.81, 9.81, 9.8, 9.36, 9.36, 9.36, 8.9, 8.9, 8.9, 8.9, 8.46, 8.46, 8.46, 8.9, 8.9, 8.89, 9.39, 9.39, 9.39, 9.83, 9.7, 9.7, 11.62, 10.28, 10.28, 10.28, 10.18, 8.55, 8.24, 10.0, 10.79, 12.68, 14.99, 19.05, 20.72, 19.52, 18.91, 18.48, 17.64, 15.77, 14.57, 7.6, 6.31, 10.59, 13.27, 13.27, 13.27, 11.5, 11.5, 11.92, 11.92, 11.92, 11.92, 11.92, 11.92, 12.04, 12.45, 12.45, 12.87, 13.28, 13.28, 13.28, 13.28, 13.28, 13.39, 13.39, 13.81, 13.99, 13.89, 13.89, 13.89, 13.47, 13.05, 13.32, 12.89, 12.96, 12.53, 12.53, 12.09, 11.84, 11.96, 12.04, 11.59, 11.59, 11.59, 11.59, 11.14, 11.14, 11.14, 11.15, 10.73, 10.73, 10.73, 10.73, 10.28, 10.28, 10.28, 9.81, 9.81, 9.81, 9.8, 9.36, 9.36, 9.36, 8.9, 8.9, 8.9, 8.9, 8.46, 8.46, 8.46, 8.9, 8.9, 8.89, 9.39, 9.39, 9.39, 9.83, 9.7, 9.7, 11.62, 10.28, 10.28, 10.28, 10.18, 8.55, 8.24, 10.0, 10.78, 11.95, 14.21, 16.8, 19.13, 19.6, 18.2, 18.62, 17.9, 16.14, 14.95, 14.3, 12.64, 14.18, 14.65, 14.65, 14.65]}, {"header": {"dx": 0.06612293990616946, "dy": 0.0552356325346848, "nx": 98, "ny": 59, "la1": 35.046912555036876, "la2": 31.78801023549047, "lo1": -121.43107172385933, "lo2": -114.95102361305473, "refTime": "2026041206", "parameterCategory": 1, "parameterNumber": 3}, "data": [-3.58, -2.43, -2.43, -1.23, -1.23, 0.0, 0.0, 0.0, 0.0, 1.63, 1.53, 2.82, 2.45, 5.0, 4.6, 4.8, 6.44, 7.59, 8.93, 8.93, 7.9, 6.97, 5.32, 4.8, 3.39, 3.53, 5.32, 6.24, 7.9, 8.49, 9.09, 9.3, 8.58, 6.01, -8.0, -8.4, -10.28, -4.0, 0.0, 0.0, 2.69, 0.0, 0.0, 3.14, 5.31, 5.49, 5.51, 7.63, 9.71, 9.88, 8.61, 8.1, 8.1, 8.1, 8.51, 8.23, 8.23, 7.69, 6.42, 6.0, 5.16, 4.98, 6.43, 8.1, 9.17, 8.59, 9.02, 7.69, 8.46, 7.88, 7.42, 6.18, 4.58, 3.82, 2.72, 2.45, 2.06, 1.77, 0.0, -1.55, -7.27, -10.73, -10.18, -8.55, -7.27, -5.7, -5.52, -4.15, -2.28, -2.93, -4.48, -5.6, -6.94, -11.6, 9.17, 11.6, 12.3, 12.72, -3.47, -3.58, -2.43, -2.43, -1.23, -1.23, 0.0, 0.0, 0.0, 0.0, 1.66, 2.13, 2.28, 2.6, 3.68, 3.53, 7.27, 8.22, 7.59, 8.55, 10.04, 8.53, 7.24, 5.98, 4.8, 3.98, 4.6, 6.17, 8.38, 10.0, 10.92, 11.91, 11.62, 6.08, -0.0, -2.06, -3.6, -8.05, 0.0, 8.94, 9.33, 8.22, 7.19, 7.1, 6.72, 6.64, 7.3, 9.12, 9.42, 7.69, 7.43, 7.43, 7.43, 7.96, 8.23, 8.31, 7.44, 6.42, 6.0, 4.81, 4.24, 5.8, 9.17, 10.37, 10.12, 9.84, 9.48, 9.21, 9.49, 8.93, 8.21, 7.63, 5.5, 3.73, 1.43, 1.29, 2.24, 1.77, 0.0, -1.55, -7.27, -10.73, -10.18, -8.55, -7.27, -5.7, -5.52, -4.15, -2.28, -2.93, -4.48, -5.6, -6.94, -11.6, 9.17, 11.6, 12.3, 12.72, -3.47, -3.58, -2.43, -2.43, -1.23, -1.23, 0.0, 0.0, 0.0, 0.0, 0.0, 1.45, 2.28, 2.82, 2.6, 2.6, 6.2, 6.2, 9.3, 11.2, 9.3, 6.45, 5.2, 6.21, 7.82, 6.42, 6.95, 8.8, 9.83, 10.73, 12.07, 12.52, 12.07, 8.94, 6.71, 6.01, 3.6, -0.0, -0.0, 10.28, 11.62, 11.88, 10.05, 7.04, 6.22, 6.36, 8.17, 8.9, 6.51, 7.19, 6.67, 7.44, 6.87, 6.87, 7.51, 8.05, 6.9, 5.55, 5.16, 4.24, 4.98, 9.17, 12.04, 11.92, 11.33, 10.23, 10.12, 10.3, 10.75, 10.3, 8.94, 7.99, 6.16, 3.53, 0.0, 0.0, 0.0, 0.95, 0.0, -1.33, -9.67, -11.62, -11.18, -9.75, -9.55, -8.03, -5.7, -5.75, -5.4, -4.48, -6.64, -7.68, -8.23, -10.73, 12.96, 12.71, 12.46, 12.89, -3.47, -3.47, -2.43, -2.43, -2.43, -1.23, -1.38, 0.0, 0.0, 0.0, 0.0, 0.0, 2.37, 2.71, 2.71, 2.71, 3.68, 5.4, 10.8, 7.9, 7.9, 4.8, 3.53, 5.2, 6.44, 7.9, 8.03, 9.33, 9.39, 9.75, 10.91, 11.44, 11.57, 10.73, 8.4, 6.64, 6.95, 5.0, 11.62, 13.41, 15.87, 15.02, 9.89, 7.22, 6.12, 5.81, 5.34, 4.24, 5.6, 5.8, 6.08, 6.43, 6.43, 7.28, 6.63, 6.3, 5.8, 4.58, 4.24, 3.53, 5.8, 12.04, 12.14, 12.42, 11.8, 11.2, 10.48, 10.3, 10.84, 11.06, 11.06, 10.31, 8.33, 5.31, 0.0, -5.4, -5.4, -2.81, 0.0, -1.21, -9.67, -12.07, -11.62, -11.18, -11.18, -11.62, -9.67, -6.21, -7.28, -7.44, -8.68, -8.68, -8.59, 0.0, 12.96, 12.96, 13.28, 13.31, -3.47, -3.47, -2.43, -2.43, -2.43, -1.23, -1.38, -1.38, 0.0, 0.0, 0.0, 0.0, 0.0, 0.0, 0.0, 0.0, 3.68, 5.4, 8.53, 8.53, 5.6, 3.53, 0.0, 3.68, 6.7, 8.73, 8.73, 9.58, 11.18, 9.13, 8.82, 8.03, 9.08, 11.28, 9.3, 6.71, 5.75, 4.81, 4.95, 18.33, 19.22, 14.95, 10.75, 8.59, 7.54, 5.99, 5.99, 6.21, 4.93, 5.8, 6.67, 7.19, 6.94, 7.28, 6.63, 5.8, 4.43, 4.58, 3.25, 3.25, 10.79, 12.96, 13.33, 13.37, 12.93, 12.2, 11.16, 10.73, 10.63, 11.54, 11.56, 12.12, 11.11, 10.2, 5.46, -3.07, -10.19, -7.51, -3.47, -1.06, -6.45, -12.07, -11.62, -10.4, -9.3, -11.84, -11.62, -9.17, -8.91, -9.91, -9.62, -8.31, 0.0, 12.96, 12.96, 12.96, 13.31, 13.31, -4.52, -3.47, -3.47, -2.43, -2.43, -1.23, -1.38, -1.34, -1.47, 0.0, 0.0, 0.0, 0.0, 0.0, 0.0, 0.0, 3.68, 5.4, 0.0, 0.0, 0.0, 2.93, 7.44, 7.19, 10.04, 10.8, 10.4, 10.0, 10.6, 10.96, 9.11, 6.64, 5.46, 8.53, 6.0, 4.98, 4.1, 3.01, 5.51, 17.81, 15.78, 13.28, 10.61, 10.01, 9.42, 9.36, 8.32, 6.94, 6.21, 6.44, 7.54, 6.94, 7.28, 6.21, 5.27, 4.81, 3.41, 2.32, 2.4, 4.24, 12.96, 12.52, 13.34, 14.11, 14.53, 13.99, 12.13, 10.73, 10.73, 10.22, 9.89, 9.62, 10.57, 9.79, 8.04, 5.62, -9.17, -11.62, -6.21, -1.5, -10.04, -12.07, -11.84, -9.97, -10.4, -12.07, -11.62, -11.57, -11.58, -11.25, -10.69, -9.48, 13.41, 12.52, 12.52, 12.96, 13.41, 13.41, -4.52, -3.47, -3.47, -2.43, -2.43, -2.43, -1.34, -1.34, -1.42, -1.53, 0.0, 0.0, 0.0, 0.0, 0.0, 0.0, 0.0, 0.0, 0.0, 0.0, 0.0, 0.0, 4.66, 11.06, 13.59, 13.99, 14.42, 12.79, 12.04, 9.6, 10.41, 9.39, 9.33, 9.83, 8.22, 4.38, 2.81, 4.38, 6.2, 13.41, 13.88, 12.96, 12.45, 11.99, 12.0, 9.69, 9.17, 8.85, 8.02, 8.01, 8.85, 7.73, 6.21, 4.39, 2.72, 1.43, 0.0, 0.0, 0.0, 9.17, 12.52, 12.52, 13.86, 14.51, 14.84, 14.56, 13.23, 11.76, 10.12, 7.93, 6.6, 5.64, 5.36, 4.55, 3.5, 3.69, 1.47, -5.6, -3.82, 0.0, -10.04, -11.62, -11.62, -11.09, -11.12, -11.93, -12.99, -13.33, -12.86, -11.21, -11.2, 11.6, 13.23, 12.96, 12.52, 12.96, 13.41, 13.41, -4.38, -3.47, -3.47, -2.35, -2.43, -2.43, -1.23, -1.34, -1.42, -1.48, -1.39, -1.39, 0.0, 0.0, 0.0, -3.53, 0.0, 0.0, 0.0, 0.0, 0.0, 0.0, 0.0, -11.06, 0.0, 0.0, 0.0, 11.38, 13.19, 11.99, 11.71, 12.07, 12.52, 11.2, 3.53, 0.0, 0.0, 0.0, 4.32, 9.67, 12.96, 13.86, 15.27, 15.19, 11.38, 10.12, 8.85, 9.48, 10.3, 10.59, 9.3, 8.53, 6.21, 3.04, 0.0, -1.55, -1.55, -1.77, -2.93, 12.52, 12.96, 12.96, 13.86, 14.07, 14.28, 14.13, 11.91, 9.2, 6.29, 3.58, 2.09, 1.01, 0.0, -0.92, -0.95, 0.0, 2.09, 4.38, 3.44, 0.0, -1.94, -11.45, -11.09, -11.62, -12.03, -12.89, -13.15, -12.56, -11.97, -11.21, 5.4, 11.62, 12.45, 13.41, 13.41, 13.41, 13.41, 13.41, -4.38, -3.47, -3.47, -2.35, -2.43, -2.43, -2.43, -2.64, -2.81, -2.54, -2.82, -3.19, -4.1, -3.14, -3.96, -3.96, -5.8, -6.0, -9.48, -9.48, -9.48, -9.48, -9.8, -14.3, -12.96, -11.18, 0.0, 0.0, 15.65, 13.57, 13.15, 15.2, 15.2, 0.0, 0.0, 0.0, -5.0, -3.53, 3.25, 8.55, 12.96, 14.75, 13.19, 8.85, 6.97, 7.15, 10.41, 11.28, 11.44, 10.98, 10.02, 9.02, 8.53, 5.4, 0.0, -1.91, -3.68, -5.2, -11.62, -0.0, 13.86, 13.34, 12.71, 13.37, 13.28, 12.0, 9.73, 6.74, 2.57, 0.0, -1.05, -2.89, -2.98, -3.2, -2.49, -1.19, 0.0, 1.47, 1.15, 1.07, 1.37, -11.44, -10.58, -11.28, -11.13, -11.34, -11.6, -10.94, -9.7, 0.0, 10.8, 11.62, 10.73, 12.39, 13.86, 13.86, 13.86, 13.41, -4.38, -3.36, -3.47, -2.35, -2.43, -2.43, -2.43, -2.43, -2.56, -2.54, -2.72, -3.14, -3.32, -4.24, -3.36, -4.24, -6.4, -6.6, -10.43, -11.99, -11.6, -11.6, -13.86, -14.3, -14.3, -11.62, 0.0, -0.0, 0.0, 14.3, 0.0, 0.0, -15.65, 0.0, 0.0, 0.0, 0.0, 0.0, 9.67, 12.58, 12.04, 11.6, 8.22, 4.6, 5.29, 7.9, 9.46, 9.16, 9.17, 9.48, 10.37, 11.64, 11.81, 11.6, 10.48, 9.3, 10.4, 11.62, -8.22, 13.41, 14.23, 14.16, 14.51, 13.15, 13.02, 12.0, 8.64, 6.52, 1.1, -2.48, -4.74, -5.62, -5.63, -3.8, -3.0, -2.35, -5.34, -5.02, -3.29, -1.08, 0.0, 0.0, -13.01, -9.96, -8.82, -8.18, -8.37, -8.37, -7.9, 11.18, 12.07, 10.8, 10.37, 9.48, 12.39, 13.59, 13.86, 13.41, -4.38, -3.36, -3.47, -2.43, -2.43, -2.43, -2.43, -2.43, -3.76, -3.85, -4.1, -3.36, -4.87, -5.46, -5.31, -5.31, -4.95, -3.79, -7.0, -10.19, -9.67, -7.8, -12.01, -10.43, -10.43, 0.0, 0.0, 0.0, 0.0, -13.86, -9.17, -9.17, 0.0, 0.0, -7.9, -5.4, 0.0, 10.4, 11.21, 12.39, 12.27, 10.73, 8.22, 3.53, 5.95, 8.82, 9.2, 7.9, 6.98, 9.09, 12.1, 13.65, 14.21, 14.64, 14.36, 14.97, 14.75, 12.21, 6.7, 12.96, 13.82, 14.5, 13.82, 13.77, 13.8, 12.65, 12.36, 12.01, 9.39, 4.1, 0.0, -3.56, -6.4, -5.81, -5.15, -5.15, -8.31, -9.17, -8.01, -5.45, -2.72, 1.46, 3.69, -9.17, -8.22, -5.95, -6.17, -6.44, -4.8, 0.0, 0.0, 8.53, 10.01, 7.78, 9.48, 11.99, 13.15, 12.71, -4.38, -3.65, -3.47, -3.58, -2.43, -2.43, -2.24, -3.58, -3.76, -3.85, -4.24, -4.87, -5.18, -5.02, -6.0, -4.39, -3.44, -2.89, -3.16, -6.31, -6.14, -3.16, 0.0, 0.0, 0.0, 0.0, 0.0, 0.0, 0.0, -4.6, -4.8, 0.0, 0.0, 0.0, 0.0, -7.27, 7.27, 11.71, 12.27, 12.45, 11.09, 10.73, 8.53, 7.9, 8.55, 8.72, 10.41, 9.6, 10.38, 11.02, 12.03, 12.94, 14.21, 15.99, 15.99, 16.31, 15.87, 12.41, 9.17, 12.71, 14.28, 14.36, 13.99, 14.1, 13.89, 14.88, 16.16, 16.75, 17.7, 16.6, 13.78, 10.69, 6.43, 0.0, -3.14, -8.31, -9.8, -11.16, -8.85, -7.44, 0.0, 4.98, 4.93, 3.58, 3.04, 0.0, 0.0, -2.49, -2.6, -5.95, -10.73, 7.59, 7.9, 7.24, 8.85, 10.41, 11.2, 11.62, -4.38, -3.65, -3.76, -3.58, -3.58, -3.58, -3.32, -3.22, -4.52, -4.74, -4.38, -4.52, -5.18, -5.34, -6.35, -6.17, -6.4, -6.0, -4.1, -6.0, -6.0, -3.68, -3.68, -1.9, -1.9, 0.0, 0.0, 0.0, 1.5, 0.0, 0.0, 0.0, 0.0, 0.0, 0.0, 0.0, 7.27, 10.6, 11.62, 11.71, 11.62, 11.2, 9.66, 9.75, 9.83, 9.83, 10.28, 10.73, 11.18, 11.18, 10.73, 11.18, 12.02, 12.52, 14.19, 15.18, 13.19, 11.77, 7.26, 11.4, 13.86, 12.96, 13.32, 12.82, 13.59, 15.27, 17.98, 20.12, 20.89, 22.66, 18.49, 13.96, 10.75, 7.18, 4.75, 0.0, -13.86, 0.0, 0.0, 0.0, 5.2, 2.82, 1.77, 3.68, 5.8, 6.4, 2.02, 0.0, 0.0, 0.0, -3.11, 10.28, 9.3, 8.22, 8.53, 10.04, 11.21, 11.21, -4.74, -4.74, -4.74, -3.47, -3.58, -3.22, -3.22, -4.21, -4.52, -4.89, -5.81, -5.02, -5.18, -6.17, -6.54, -7.82, -7.82, -7.54, -8.18, -7.93, -7.1, -6.4, -5.18, -3.79, -3.79, -1.94, -1.58, -1.58, 0.0, 0.0, 0.0, 0.0, 0.0, 0.0, 0.0, 0.0, 2.97, 9.97, 10.28, 10.73, 11.03, 9.3, 10.0, 10.6, 9.83, 9.83, 8.49, 9.83, 10.73, 10.73, 10.73, 10.73, 13.41, 13.86, 12.96, 8.53, 8.53, 7.1, 8.58, 10.91, 12.96, 13.34, 12.85, 13.59, 13.11, 14.18, 15.98, 17.35, 18.06, 15.25, 15.82, 11.22, 8.4, 4.64, 2.28, 2.89, 14.84, 13.59, 8.85, 5.48, 3.25, 0.0, 0.0, 0.0, 3.44, 4.71, 2.81, 3.36, 3.07, 1.33, 1.09, 0.0, 11.18, 11.03, 8.93, 10.4, 10.79, 10.79, -4.38, -4.74, -4.74, -4.89, -4.52, -4.21, -4.21, -5.14, -5.14, -5.92, -5.81, -5.18, -5.18, -6.17, -6.54, -7.4, -7.4, -8.77, -7.98, -7.76, -7.54, -6.8, -4.95, -5.09, -3.49, -3.59, -3.49, -3.39, -3.3, -2.89, -1.38, -1.25, 0.0, 0.0, 0.0, 0.0, 3.25, 8.4, 10.6, 9.75, 10.18, 8.22, 7.59, 10.18, 9.39, 9.39, 9.39, 9.39, 8.94, 9.83, 10.28, 10.28, 9.83, 8.49, 0.0, 0.0, 0.0, 2.6, 7.36, 11.72, 11.62, 11.51, 11.71, 11.71, 11.71, 12.58, 13.44, 12.89, 11.16, 10.75, 11.7, 9.69, 4.34, 0.0, 0.0, 8.68, 13.39, 11.06, 9.77, 7.49, 5.64, 3.01, 1.25, 0.0, -5.4, 0.0, 0.0, 2.63, 3.18, 3.47, 2.0, 1.07, 0.0, 11.18, 11.18, 10.79, 10.79, 10.79, -4.38, -4.74, -4.74, -4.89, -5.5, -5.14, -5.14, -4.81, -5.99, -5.92, -5.99, -6.6, -6.6, -6.17, -7.0, -7.2, -7.4, -8.25, -7.6, -8.21, -7.98, -7.2, -6.54, -5.23, -4.75, -4.75, -4.75, -5.09, -3.39, -2.98, -2.98, -2.72, -2.48, 0.0, 0.0, 0.0, 1.93, 5.46, 10.0, 9.6, 8.55, 8.93, 7.59, 6.95, 8.91, 9.39, 9.39, 8.94, 8.94, 8.49, 8.94, 8.94, 6.32, 6.32, 0.0, 0.0, 2.69, 5.9, 9.67, 11.28, 10.22, 10.58, 9.96, 9.96, 9.55, 11.02, 10.04, 12.3, 10.82, 10.12, 5.81, 1.3, -1.34, -4.35, 0.0, 13.99, 13.33, 11.17, 9.39, 8.91, 8.7, 7.63, 5.3, 2.32, -1.64, -8.73, -5.8, -1.66, 0.0, 1.29, 2.06, 0.0, 7.9, 10.96, 10.73, 10.52, 10.6, 10.6, -4.08, -4.38, -4.52, -4.38, -5.33, -5.5, -5.14, -5.3, -5.99, -5.5, -5.99, -6.6, -6.8, -6.17, -7.0, -7.0, -6.47, -7.4, -8.25, -7.6, -7.4, -7.2, -5.09, -5.09, -4.62, -4.23, -4.23, -3.16, -3.16, -3.24, -3.04, -3.04, -2.88, -2.02, -1.26, 0.0, 1.33, 5.95, 9.2, 9.2, 9.6, 6.32, 6.95, 7.07, 6.64, 8.91, 9.39, 9.39, 8.0, 8.0, 8.0, 4.2, 4.2, 4.2, 4.2, 5.21, 6.95, 7.27, 9.58, 9.08, 9.58, 8.23, 6.95, 8.18, 9.54, 8.94, 10.28, 12.14, 10.37, 5.8, 0.0, -4.03, -7.87, -5.37, 16.19, 15.27, 13.46, 10.98, 9.28, 8.06, 8.06, 7.67, 5.91, 3.91, 2.13, -3.68, -9.3, -4.81, -1.66, 0.0, 0.0, 0.0, 5.0, 10.4, 11.4, 10.52, 10.6, 10.6, -3.12, -4.08, -4.52, -4.52, -5.33, -4.97, -5.14, -5.14, -5.3, -5.67, -5.48, -6.17, -6.8, -6.17, -6.8, -6.8, -7.49, -6.66, -7.4, -6.72, -6.54, -6.54, -4.95, -3.3, -3.07, -4.23, -4.35, -3.24, -3.24, -3.12, -3.12, -4.7, -4.7, -3.9, -2.24, 0.0, 3.52, 7.27, 8.93, 7.27, 8.8, 8.4, 3.8, 4.0, 6.32, 6.64, 7.81, 8.4, 8.4, 6.64, 6.64, 4.4, 4.4, 4.4, 6.95, 5.46, 5.46, 7.27, 7.59, 7.9, 7.9, 8.58, 7.27, 9.33, 9.39, 9.39, 10.28, 11.28, 5.95, 0.0, 0.0, -1.98, -3.06, 4.34, 12.45, 13.26, 11.16, 9.07, 8.04, 6.35, 4.91, 4.04, 3.17, 2.25, 0.0, -12.96, -12.96, -10.37, -7.44, -4.87, 0.0, 1.38, 4.32, 10.4, 11.62, 11.18, 10.84, 10.84, -2.9, -3.81, -4.08, -4.21, -4.97, -4.97, -5.14, -4.81, -4.96, -5.3, -6.1, -6.17, -7.0, -7.6, -7.38, -7.6, -6.6, -7.0, -7.0, -5.64, -5.81, -6.54, -7.0, -4.54, -4.18, -3.24, -4.87, -5.37, -5.51, -3.49, -5.01, -5.14, -6.11, -4.59, -1.42, 1.25, 3.99, 5.21, 5.46, 6.2, 4.6, 4.6, 3.25, 3.11, 3.11, 5.46, 5.46, 6.64, 6.64, 6.64, 6.95, 5.46, 3.11, 6.95, 6.95, 7.27, 5.46, 7.59, 7.9, 7.9, 7.59, 7.59, 8.55, 8.67, 9.39, 10.28, 10.28, 9.2, 4.4, 0.0, 1.25, 2.65, 4.38, 5.62, 4.72, 2.52, 0.0, 0.0, 0.87, 1.87, 0.0, 0.0, 0.0, 0.0, 0.0, -7.19, -12.14, -11.62, -10.79, -7.19, 0.0, 1.66, 1.98, 10.4, 12.07, 11.62, 11.46, 11.46, -3.57, -3.57, -3.81, -3.81, -4.08, -4.08, -4.21, -3.93, -4.96, -5.3, -5.67, -5.64, -6.35, -7.6, -7.0, -6.8, -7.59, -7.59, -7.76, -5.99, -6.69, -8.53, -9.35, -7.8, -6.52, -5.23, -6.14, -4.42, -4.12, -4.12, -5.51, -5.01, -3.42, -1.73, 1.69, 4.37, 4.1, 3.68, 3.61, 2.06, 2.17, 2.28, 2.28, 2.28, 3.14, 4.8, 4.4, 5.46, 5.21, 2.97, 2.97, 2.97, 6.64, 6.95, 6.32, 6.64, 7.59, 5.46, 5.7, 5.95, 5.7, 7.27, 9.33, 9.83, 9.39, 9.83, 10.28, 9.2, 5.7, 3.34, 3.68, 4.62, 5.75, 3.14, -1.97, -6.81, -8.93, -8.53, -4.19, -2.5, -1.68, -1.59, -0.82, -0.89, 0.0, 0.0, 0.0, 7.59, 0.0, 3.68, 0.0, 0.0, 1.77, 9.67, 12.07, 12.07, 11.4, 11.4, -3.57, -3.57, -3.57, -3.81, -3.81, -4.08, -4.08, -3.93, -4.05, -5.11, -5.3, -6.29, -6.35, -7.6, -7.0, -8.05, -7.06, -7.06, -6.67, -6.8, -6.69, -8.21, -8.21, -7.2, -6.9, -5.37, -3.49, -4.12, -3.78, -3.88, -3.51, -1.73, 0.0, 0.0, 3.33, 3.24, 2.89, 2.81, 2.82, 2.49, 2.28, 2.39, 2.39, 2.39, 3.3, 4.8, 4.4, 5.46, 2.97, 2.97, 2.83, 2.97, 6.64, 8.18, 8.55, 6.95, 5.7, 7.27, 5.95, 5.46, 6.95, 9.83, 9.83, 9.83, 9.39, 10.28, 12.07, 11.03, 7.9, 5.64, 5.8, 6.47, 8.45, 5.2, -4.55, -11.06, -13.05, -12.42, -10.05, -7.0, -4.41, -2.57, -0.89, 0.0, 0.0, 0.0, 2.37, 6.71, 2.82, 1.58, -1.71, -3.56, 0.0, 6.45, 12.07, 11.84, 11.03, 11.03, -3.36, -3.57, -3.57, -3.57, -3.81, -3.81, -3.81, -3.93, -4.05, -4.18, -5.11, -5.85, -5.64, -7.6, -7.6, -8.05, -7.28, -7.06, -7.43, -7.4, -7.03, -6.72, -7.2, -7.2, -6.9, -5.65, -3.42, -3.24, -3.24, -3.33, -1.58, 0.0, 0.0, 0.0, 1.69, 0.0, 0.0, 1.53, 1.55, 2.71, 2.82, 2.7, 2.58, 2.28, 3.14, 2.83, 2.49, 2.39, 2.97, 2.83, 2.83, 4.2, 6.32, 7.81, 6.95, 5.7, 5.95, 6.44, 5.95, 6.95, 8.94, 9.75, 9.83, 9.39, 9.83, 12.07, 12.52, 11.46, 10.68, 10.41, 10.91, 11.52, 14.37, 10.93, -11.98, -13.57, -15.63, -15.5, -14.51, -11.44, -8.83, -5.06, -2.88, 0.0, 0.0, 0.0, 1.96, 0.0, -1.08, 0.0, -3.06, -1.98, 2.45, 2.93, 11.03, 11.28, 11.4, 11.4, -3.36, -3.36, -3.36, -3.57, -3.81, -3.81, -3.93, -3.93, -4.05, -3.92, -4.18, -5.46, -6.47, -7.6, -7.6, -8.05, -7.28, -6.6, -7.66, -7.4, -6.53, -5.5, -5.64, -6.17, -6.72, -5.01, -5.14, -4.59, -3.04, -2.88, -1.5, -1.5, 0.0, 0.0, 0.0, 0.0, 0.0, 0.0, 1.61, 1.64, 1.52, 1.45, 1.39, 1.26, 2.21, 2.21, 2.39, 2.28, 0.0, 2.69, 2.83, 4.0, 6.32, 6.32, 5.21, 5.46, 7.27, 7.9, 7.9, 8.94, 6.64, 9.97, 10.28, 9.83, 9.83, 12.52, 12.96, 11.18, 11.02, 11.06, 11.87, 10.91, 8.3, 7.03, -7.9, -9.21, -13.88, -14.99, -15.41, -15.24, -11.87, -8.85, -6.56, -4.73, -2.45, -1.26, -1.47, -3.2, -5.31, 0.0, 0.0, 3.82, 2.93, 2.93, 8.22, 11.62, 11.28, 11.28, -3.36, -3.36, -3.36, -3.36, -3.57, -3.81, -3.81, -3.93, -4.05, -4.18, -3.92, -5.26, -6.02, -7.0, -7.6, -8.05, -7.49, -6.6, -7.0, -7.2, -7.4, -6.53, -6.66, -5.04, -5.64, -6.14, -4.59, -4.59, -4.59, -2.79, -2.65, -1.46, 0.0, 0.0, 0.0, 0.0, 0.0, 0.0, 0.0, 0.0, 0.0, 0.0, 1.69, 1.69, 1.26, 1.14, 0.0, 0.0, 0.0, 2.17, 2.83, 2.69, 4.71, 4.96, 4.96, 5.21, 6.01, 7.33, 6.71, 4.8, 7.6, 7.44, 9.39, 9.39, 9.83, 13.86, 12.96, 12.96, 10.73, 9.83, 8.55, 0.0, 2.25, 5.64, 6.9, 4.12, -14.42, -13.32, -13.48, -14.18, -14.03, -11.34, -8.87, -7.5, -6.4, -5.92, -4.74, -5.63, -2.72, 12.27, 9.17, 8.53, 7.24, 6.7, 8.22, 9.67, 11.62, 11.62, -3.36, -3.36, -3.36, -3.36, -3.57, -3.57, -3.81, -3.93, -4.05, -4.18, -4.81, -4.81, -5.62, -6.47, -7.0, -7.0, -7.49, -6.8, -6.8, -6.74, -6.74, -7.6, -6.53, -6.36, -5.35, -5.35, -5.81, -5.96, -4.59, -4.12, -2.79, -1.37, 0.0, 0.0, 0.0, -1.34, -1.6, 0.0, 0.0, 0.0, 0.0, 1.39, 1.62, 1.69, 0.0, 0.0, 0.0, 0.94, 1.94, 2.04, 2.83, 3.82, 2.06, 2.83, 2.17, 4.96, 6.32, 5.37, 5.36, 5.9, 9.33, 8.49, 8.48, 9.39, 11.18, 13.86, 12.52, 11.87, 8.94, 0.0, -1.58, 0.0, 2.85, 8.06, 8.14, 7.49, 5.14, -6.69, -12.81, -10.99, -13.37, -13.03, -11.6, -10.27, -7.69, -6.3, -5.8, -4.81, 9.48, 13.75, 13.59, 10.73, 8.01, 6.44, 6.97, 7.9, 10.6, 10.6, -4.13, -4.13, -3.36, -3.36, -3.36, -3.57, -3.57, -3.93, -4.05, -4.05, -4.81, -4.81, -5.26, -6.02, -7.0, -7.0, -7.49, -7.0, -7.0, -6.56, -6.56, -6.74, -6.1, -6.53, -6.36, -5.5, -5.5, -5.81, -5.96, -4.59, -2.79, -2.79, -1.37, 0.0, -1.34, -1.34, -1.46, 0.0, 0.0, 0.0, 1.23, 2.23, 3.45, 3.87, 2.82, 2.82, 2.39, 2.83, 2.57, 3.49, 3.49, 3.49, 3.65, 4.4, 4.0, 6.32, 6.01, 5.69, 6.32, 7.15, 7.87, 9.75, 8.48, 9.39, 10.28, 12.52, 12.07, 11.2, 4.8, 1.45, 0.0, 0.0, 3.09, 7.62, 11.8, 11.09, 9.4, 4.16, -9.66, -12.14, -12.63, -13.92, -12.79, -11.07, -8.54, -6.88, -3.68, 0.0, 10.73, 12.87, 12.16, 10.43, 7.11, 5.8, 5.54, 6.98, 6.98, 6.98, -4.13, -4.13, -4.13, -3.36, -3.36, -3.57, -3.57, -3.57, -3.93, -4.96, -4.81, -4.81, -5.26, -5.46, -6.47, -7.0, -7.0, -7.49, -7.0, -6.56, -6.56, -5.62, -5.78, -5.94, -5.23, -5.23, -5.09, -5.65, -5.81, -4.47, -4.47, -3.04, -2.79, -1.41, -1.27, -2.34, -1.27, 0.0, 1.83, 4.5, 3.98, 4.12, 4.8, 3.99, 4.6, 5.45, 4.99, 4.56, 4.0, 4.0, 4.2, 3.65, 3.65, 3.99, 4.4, 5.1, 5.1, 4.46, 5.37, 6.63, 7.51, 6.64, 7.59, 8.67, 10.73, 10.28, 11.4, 5.52, 4.05, 3.61, 2.42, 2.28, 2.11, 5.51, 8.76, 12.28, 8.56, 6.36, 1.34, -11.62, -12.37, -13.99, -12.79, -11.38, -10.01, -9.48, -6.4, -2.35, 8.31, 9.8, 6.2, 4.81, 5.18, 6.2, 6.3, 7.14, 6.86, 6.86, -4.13, -4.13, -4.13, -4.13, -3.57, -3.57, -3.57, -3.57, -3.93, -4.81, -4.66, -4.81, -5.64, -5.46, -5.85, -6.8, -7.0, -6.47, -7.0, -5.62, -5.62, -5.26, -5.26, -5.62, -4.73, -3.62, -3.9, -2.45, -2.52, -2.52, -2.72, -2.72, -2.79, -2.79, -1.21, -2.34, -1.27, 0.0, 1.69, 4.62, 5.48, 5.8, 5.75, 5.46, 6.31, 6.04, 5.29, 4.4, 4.2, 4.2, 3.49, 3.99, 4.18, 4.18, 4.36, 5.06, 4.0, 4.71, 5.69, 6.32, 5.59, 4.0, 6.95, 9.39, 9.39, 11.18, 6.71, 2.02, 1.62, 2.82, 2.42, 1.2, 0.0, 0.0, 2.28, 2.86, 2.02, 3.16, 5.09, -9.17, -10.73, -13.72, -13.43, -11.99, -10.8, -9.88, -8.73, -2.81, 2.81, 5.31, 2.72, 2.89, 4.42, 5.81, 7.13, 7.62, 7.93, 7.93, -4.13, -4.13, -4.13, -4.38, -4.38, -3.57, -3.57, -3.69, -3.93, -3.93, -4.96, -4.81, -5.81, -6.16, -5.62, -5.19, -6.8, -6.29, -5.85, -5.46, -5.62, -5.26, -5.26, -4.3, -4.6, -3.52, -3.52, -2.45, -2.52, -1.27, -1.27, -1.27, -2.72, -2.52, -2.34, -2.34, -1.18, 0.0, 1.54, 4.75, 6.35, 6.51, 6.45, 5.72, 5.46, 5.46, 4.8, 4.72, 4.72, 3.81, 3.99, 3.99, 3.99, 4.99, 5.21, 4.36, 3.98, 4.6, 5.21, 5.21, 4.0, 2.46, 8.05, 9.39, 10.28, 11.45, 9.08, 3.25, -4.4, 0.0, 1.23, 1.13, 0.0, -4.1, -6.4, -5.23, -3.51, 0.0, 2.37, 1.93, -9.39, -13.15, -13.77, -12.18, -11.26, -11.6, -10.79, -4.38, 0.0, 0.0, 2.81, 5.48, 7.32, 8.06, 8.46, 8.78, 7.78, 7.78, -4.38, -4.38, -4.38, -4.38, -4.38, -4.38, -3.57, -3.69, -3.69, -4.81, -4.81, -4.81, -5.64, -6.16, -5.78, -6.02, -5.19, -6.29, -6.29, -5.85, -5.62, -5.26, -4.3, -4.3, -3.28, -3.28, -3.18, -2.38, -2.45, -1.23, -1.15, -1.23, -2.45, -2.45, -2.52, -2.34, -1.18, 0.0, 1.41, 3.33, 6.54, 7.93, 6.94, 5.46, 4.46, 4.88, 5.4, 5.45, 5.45, 5.08, 4.15, 3.49, 3.65, 3.65, 3.82, 3.98, 3.08, 3.39, 4.8, 2.39, 1.26, 4.0, 7.89, 9.39, 9.39, 10.73, 10.46, 9.66, 0.0, -6.95, 0.0, 4.48, 4.66, 1.18, -5.62, -10.39, -8.16, -5.09, -1.78, 1.6, 0.0, -8.18, -12.01, -9.62, -9.21, -8.58, -6.2, -4.38, 0.0, 2.35, 3.93, 7.1, 8.85, 9.09, 8.72, 8.68, 8.31, 8.31, -4.24, -4.24, -4.38, -4.38, -4.38, -4.38, -3.57, -3.69, -3.69, -3.8, -4.96, -4.81, -5.64, -5.64, -6.16, -6.02, -5.35, -5.35, -6.47, -6.02, -5.62, -4.3, -4.3, -4.3, -3.28, -3.28, -2.15, -2.09, -2.31, -1.11, -1.15, -1.11, -2.21, -2.38, -3.62, -2.28, -2.34, 0.0, 0.0, 3.33, 8.03, 9.12, 7.19, 5.21, 3.63, 4.05, 4.55, 5.31, 6.4, 6.0, 5.2, 3.21, 3.21, 3.21, 3.36, 3.82, 3.08, 3.21, 3.39, 1.76, 1.54, 2.97, 5.36, 8.94, 7.44, 8.4, 9.83, 8.8, 6.42, 3.25, 4.4, 6.24, 5.93, 6.18, 2.98, -5.47, -11.17, -8.65, -6.05, -3.36, -0.74, -1.61, -3.89, -4.37, -3.22, -2.65, -1.94, 0.0, 0.0, 2.63, 3.85, 6.0, 7.69, 9.71, 9.33, 8.94, 9.06, 9.06, -4.24, -4.24, -4.24, -4.38, -4.38, -4.38, -3.57, -3.69, -3.69, -3.8, -4.96, -4.96, -4.66, -5.81, -6.16, -5.62, -4.95, -5.5, -5.5, -5.09, -4.73, -4.42, -4.3, -4.3, -3.28, -3.28, -2.15, -2.02, -1.6, -1.13, -2.38, -2.28, -2.28, -2.38, -3.52, -3.62, -2.28, -1.27, 0.0, 3.24, 8.03, 8.68, 6.73, 4.15, 2.95, 2.94, 3.41, 5.04, 5.73, 5.18, 4.25, 3.06, 3.06, 3.06, 3.21, 3.65, 2.95, 3.08, 3.08, 2.19, 1.52, 1.54, 6.01, 8.06, 8.48, 6.01, 7.81, 7.81, 6.42, 5.95, 5.46, 5.7, 4.93, 6.66, 6.76, 3.6, -5.65, -11.87, -10.23, -6.47, -2.97, 0.0, 0.0, -1.39, -1.37, -1.37, 0.0, 0.0, 0.95, 1.83, 3.81, 6.67, 8.05, 8.58, 9.06, 8.46, 8.94, 8.94, -4.24, -4.24, -4.24, -3.57, -3.57, -3.57, -3.57, -3.69, -3.47, -3.8, -4.66, -4.66, -4.66, -4.66, -5.81, -5.26, -6.02, -4.95, -5.35, -5.09, -4.73, -4.42, -4.42, -3.28, -3.18, -3.18, -2.15, -2.02, -1.96, -1.56, -1.13, -2.21, -2.28, -2.45, -2.45, -2.45, -2.45, -1.27, 0.0, 2.96, 7.4, 8.93, 6.95, 4.48, 2.82, 2.82, 3.41, 4.74, 6.2, 4.81, 3.88, 3.7, 3.06, 3.06, 3.21, 3.36, 3.36, 2.71, 1.92, 2.0, 2.1, 4.37, 6.64, 6.44, 8.49, 7.81, 8.05, 8.06, 5.9, 5.95, 6.17, 4.23, 2.28, 2.02, 3.44, 5.98, 4.3, -13.41, -12.96, -9.87, -4.43, -0.75, 0.0, 0.0, -1.47, -1.48, -1.43, -0.66, 0.0, 1.97, 4.65, 7.24, 8.44, 8.05, 7.58, 8.85, 8.78, 8.78, -4.24, -4.24, -4.24, -3.46, -3.57, -3.57, -3.57, -3.69, -3.47, -3.58, -3.8, -4.81, -4.66, -4.66, -5.64, -6.16, -5.26, -4.6, -5.35, -5.5, -6.19, -4.86, -4.42, -3.37, -2.98, -3.18, -2.15, -2.09, -2.09, -1.05, -1.05, -1.08, -1.11, -2.21, -2.28, -2.45, -2.45, -1.23, 0.0, 4.35, 7.4, 9.17, 6.8, 4.43, 2.82, 3.68, 4.28, 6.2, 6.2, 4.99, 4.07, 3.88, 3.88, 3.21, 3.36, 3.36, 3.25, 2.49, 1.84, 1.92, 3.68, 5.06, 6.32, 6.64, 8.06, 8.49, 8.05, 7.2, 6.64, 6.42, 6.48, 6.45, 1.71, 0.0, 0.0, 4.83, 7.27, 5.6, -6.34, -12.35, -9.16, -4.95, -2.45, -0.89, 0.0, -1.51, -2.13, -1.92, -0.77, 1.13, 6.21, 9.77, 8.85, 7.19, 7.69, 8.85, 8.58, 8.58, -4.24, -4.24, -4.24, -3.46, -3.57, -3.57, -3.57, -3.69, -3.58, -3.58, -3.69, -4.81, -4.81, -4.66, -4.66, -5.34, -5.64, -5.46, -4.81, -5.35, -6.19, -5.78, -4.42, -4.42, -3.07, -2.98, -2.01, -2.09, -2.09, -1.08, -1.01, -1.01, -1.01, -1.01, -2.07, -2.21, -1.15, 0.0, 0.0, 4.01, 6.84, 7.2, 6.8, 4.58, 2.93, 3.68, 5.18, 5.55, 5.55, 5.36, 3.67, 3.51, 3.36, 3.36, 3.36, 3.36, 3.25, 3.25, 3.95, 5.57, 5.2, 7.26, 6.64, 6.64, 8.05, 8.67, 7.81, 8.24, 7.15, 6.01, 6.04, 6.76, 5.8, 1.9, 0.98, 2.94, 6.5, 7.84, 4.56, -2.16, -8.65, -8.7, -6.14, -2.19, 0.0, -0.7, -1.34, -0.95, 0.0, 4.81, 10.01, 9.66, 8.85, 7.51, 6.0, 5.15, 8.31, 8.31, -4.24, -4.24, -4.24, -4.24, -3.57, -3.57, -3.69, -3.69, -3.58, -3.58, -3.69, -3.69, -4.81, -4.66, -4.66, -4.53, -5.34, -5.64, -5.46, -4.95, -5.35, -6.19, -5.78, -4.42, -3.07, -2.98, -2.01, -1.95, -1.05, -1.08, -1.08, -1.01, -0.92, -0.92, -0.92, -1.01, 0.0, 0.0, 1.15, 3.62, 6.66, 6.66, 5.35, 3.25, 2.93, 3.97, 4.99, 5.36, 4.58, 4.43, 3.97, 3.51, 3.65, 4.4, 4.07, 4.07, 3.95, 4.6, 4.6, 6.24, 6.48, 6.41, 6.14, 5.69, 6.63, 7.81, 7.81, 8.06, 6.32, 6.32, 7.59, 7.27, 7.44, 5.46, 3.58, 2.21, 4.49, 5.92, 5.88, 3.12, -0.87, -6.47, -9.44, -5.02, -2.48, -1.06, 0.0, 0.0, 9.17, 11.6, 9.17, 6.94, 8.85, 4.1, 4.81, 4.24, 5.46, 5.46, -4.1, -4.1, -4.24, -4.24, -4.38, -4.38, -4.52, -4.52, -4.66, -3.58, -3.69, -3.69, -3.69, -4.81, -4.66, -4.4, -5.34, -5.34, -4.81, -4.6, -4.95, -6.47, -6.19, -5.78, -4.3, -2.98, -2.01, -1.95, -0.98, -1.01, -1.08, -1.01, -0.98, -0.92, -0.92, 0.0, 0.0, 0.0, 1.04, 3.62, 6.19, 6.19, 4.81, 3.14, 3.51, 3.67, 3.97, 4.28, 4.43, 4.43, 4.12, 4.62, 4.6, 5.06, 4.71, 4.71, 4.6, 4.6, 5.41, 6.0, 6.48, 7.54, 6.14, 6.01, 6.01, 6.64, 7.2, 7.6, 7.15, 7.67, 8.15, 8.23, 7.51, 8.11, 6.77, 3.8, 0.0, 0.0, 0.0, 0.79, 1.61, 1.41, -10.75, -11.09, -7.69, -3.36, 0.0, 0.0, 9.48, 9.48, 5.8, 3.96, 3.04, 4.1, 0.0, 0.0, 0.0, 3.25, -4.1, -4.1, -4.24, -4.24, -4.38, -4.38, -4.52, -4.52, -4.66, -4.4, -3.69, -3.69, -4.53, -4.53, -4.81, -4.4, -4.4, -5.34, -4.53, -4.95, -4.6, -4.95, -6.47, -6.19, -5.62, -4.18, -2.89, -1.95, -1.95, -0.98, -1.01, -0.98, -0.98, -0.92, 0.0, 0.0, 0.0, 0.0, 1.01, 3.52, 4.95, 5.09, 4.66, 3.82, 3.11, 3.67, 3.97, 4.28, 4.58, 5.36, 5.18, 5.57, 5.14, 4.71, 4.71, 4.71, 4.6, 4.6, 5.63, 6.0, 7.1, 7.54, 6.7, 6.01, 5.69, 7.15, 7.6, 7.63, 8.06, 8.17, 8.22, 8.82, 7.73, 7.36, 9.89, 9.85, 3.69, -1.07, -3.6, -3.68, 0.0, 2.79, -15.59, -16.09, -12.87, -7.13, -5.15, -4.24, 0.0, 0.0, 0.0, 0.0, 0.0, 0.0, 0.0, 0.0, -1.38, 0.0, -4.1, -4.1, -4.1, -4.24, -4.38, -4.38, -4.52, -4.52, -4.66, -4.4, -4.53, -4.53, -4.53, -4.53, -4.81, -4.66, -4.4, -4.4, -4.29, -4.53, -4.95, -4.6, -4.95, -6.47, -6.02, -5.46, -4.05, -2.89, -2.81, -1.89, -0.98, -0.98, -0.92, -0.92, -0.89, 0.0, 0.0, 0.0, 1.01, 3.42, 4.95, 4.95, 3.32, 2.71, 3.08, 4.64, 5.73, 6.4, 5.92, 5.73, 6.21, 5.78, 5.14, 4.92, 4.71, 4.71, 4.6, 4.8, 6.0, 6.0, 7.1, 7.54, 5.76, 6.64, 6.32, 8.4, 7.89, 7.89, 8.06, 8.22, 8.22, 7.21, 7.26, 8.73, 10.76, 14.31, 12.99, 7.89, 3.5, 0.0, -4.95, -16.54, -17.88, -17.88, -15.2, -13.15, -10.73, -11.16, -11.6, -11.2, -5.6, -3.96, -5.6, -3.04, -3.96, -3.32, -3.82, -1.38, -4.1, -4.1, -4.1, -4.24, -4.24, -4.38, -4.38, -4.52, -4.52, -4.66, -4.4, -4.4, -4.53, -4.53, -4.66, -4.66, -4.4, -4.4, -4.16, -4.29, -4.53, -4.81, -4.47, -4.95, -6.47, -6.02, -5.67, -5.14, -3.93, -2.81, -2.81, -1.83, -1.83, -1.83, -0.89, -0.89, 0.0, 0.0, 0.95, 3.32, 4.66, 3.69, 3.22, 2.81, 3.42, 4.81, 6.29, 6.47, 6.1, 5.92, 5.33, 4.81, 4.44, 4.07, 4.07, 4.07, 3.95, 5.14, 5.76, 6.0, 6.48, 6.92, 7.82, 6.95, 7.51, 7.51, 6.79, 9.11, 8.38, 9.03, 7.81, 7.21, 7.59, 8.22, 9.48, 13.59, 14.84, 15.41, 13.11, 10.12, 8.68, 9.67, -17.59, -18.05, -16.54, -12.96, -12.96, -12.58, -12.96, -12.96, -10.41, -10.01, -8.85, -7.82, -6.94, -7.02, -7.02, -7.02, -3.96, -3.96, -4.1, -4.1, -4.24, -4.24, -4.38, -4.52, -4.52, -4.52, -4.4, -4.4, -4.4, -4.4, -3.8, -4.66, -4.66, -4.4, -4.4, -4.16, -4.29, -4.53, -3.92, -4.18, -4.81, -4.81, -5.67, -5.5, -5.14, -3.81, -3.81, -2.72, -2.81, -1.77, -1.77, -0.86, -0.86, 0.0, 1.96, 4.52, 4.52, 3.47, 3.12, 2.62, 3.55, 3.94, 5.67, 6.29, 4.89, 4.38, 4.24, 3.82, 3.36, 3.21, 4.07, 4.07, 4.44, 5.14, 5.35, 6.0, 6.24, 6.92, 7.14, 7.27, 7.87, 7.51, 7.51, 9.11, 8.38, 9.11, 7.33, 6.32, 8.58, 8.0, 8.85, 9.31, 11.86, 13.98, 14.59, 15.41, 14.1, 12.7, 8.3, -19.51, -15.59, -10.73, -7.51, -9.17, -12.3, -12.96, -12.14, -11.62, -10.73, -9.77, -8.53, -7.73, -7.73, -7.73, -3.96, -3.96, -4.1, -4.1, -4.24, -4.24, -4.38, -4.38, -4.38, -4.52, -4.27, -4.4, -4.4, -3.58, -3.8, -3.8, -4.66, -4.4, -4.4, -4.16, -3.48, -3.48, -3.48, -3.69, -3.92, -4.47, -4.34, -4.52, -4.38, -4.08, -3.94, -3.68, -2.81, -2.72, -1.89, -0.84, -0.89, 0.0, 2.04, 4.24, 4.38, 3.36, 3.02, 2.53, 3.42, 3.81, 4.52, 4.52, 4.24, 3.04, 2.93, 2.71, 3.21, 3.21, 3.36, 3.11, 4.44, 5.14, 5.35, 5.35, 5.57, 6.21, 6.92, 7.54, 7.27, 7.87, 7.51, 9.64, 8.82, 8.0, 6.98, 6.98, 7.81, 7.9, 7.15, 6.08, 5.81, 9.4, 11.28, 15.24, 16.53, 15.81, 14.5, 9.13, -17.99, -6.8, -5.6, -9.17, -12.96, -12.96, -12.27, -11.87, -10.8, -10.41, -10.04, -5.4, -5.4, -5.4, -3.96, -3.96, -4.1, -4.1, -4.24, -4.24, -4.38, -4.38, -4.52, -4.52, -4.27, -4.4, -4.4, -3.58, -3.58, -3.8, -3.8, -4.66, -4.4, -4.4, -3.48, -3.48, -3.48, -3.48, -2.8, -2.8, -2.89, -2.02, -2.9, -2.81, -2.81, -2.81, -2.81, -1.9, -1.77, -0.89, -0.86, 0.0, 3.02, 4.24, 4.24, 3.25, 2.92, 2.61, 2.51, 3.55, 4.24, 4.24, 3.25, 2.93, 2.71, 2.49, 3.06, 3.21, 3.11, 3.95, 4.25, 5.14, 5.35, 5.35, 5.35, 5.98, 6.21, 7.14, 8.53, 7.87, 7.15, 7.67, 8.72, 8.4, 6.64, 8.0, 7.81, 6.58, 5.32, 4.08, 4.24, 5.91, 8.95, 11.54, 14.91, 16.9, 14.1, 13.57, 0.0, -11.43, -9.66, -12.58, -12.96, -12.27, -12.58, -11.45, -11.62, -12.07, -0.0, -0.0, -0.0, -0.0, -3.96, -3.96, -4.1, -4.1, -4.1, -4.24, -4.24, -4.38, -4.52, -4.52, -4.27, -4.27, -3.38, -3.58, -3.58, -3.8, -3.8, -4.66, -4.4, -4.4, -3.58, -3.48, -3.48, -2.64, -2.64, -1.78, -1.72, -0.89, -0.86, -0.86, -0.84, -1.71, -0.86, -0.86, -0.86, -0.86, 0.0, 0.92, 3.02, 4.1, 4.1, 3.14, 2.92, 2.61, 2.51, 3.55, 2.92, 2.92, 1.97, 1.84, 2.71, 2.39, 2.17, 2.28, 3.11, 4.07, 4.25, 4.44, 4.62, 4.62, 4.62, 5.75, 6.21, 7.41, 7.36, 7.27, 6.32, 6.79, 8.05, 8.4, 8.05, 8.18, 6.64, 5.46, 5.32, 3.92, 3.6, 4.66, 6.94, 10.89, 13.45, 14.88, 13.68, 12.31, 10.4, -10.0, -15.62, -13.01, -12.96, -12.58, -12.14, -12.52, -11.45, -0.0, -0.0, -0.0, -0.0, -0.0, -3.96, -3.96, -4.1, -4.1, -4.24, -4.24, -4.24, -4.38, -4.38, -4.52, -4.27, -4.27, -3.58, -3.38, -3.58, -3.58, -3.8, -3.8, -3.8, -3.8, -3.58, -3.48, -3.48, -2.64, -1.78, -0.89, -0.87, -0.84, -0.81, -0.81, -0.79, -0.81, -0.81, 0.0, 0.0, -0.78, 0.0, 0.89, 2.92, 4.1, 4.1, 3.14, 1.97, 2.71, 2.51, 2.71, 2.81, 1.9, 1.9, 1.77, 2.6, 2.39, 2.17, 2.28, 3.36, 4.07, 4.25, 4.44, 4.62, 4.62, 4.44, 5.0, 6.45, 6.7, 7.65, 7.27, 6.32, 7.44, 8.18, 8.23, 9.13, 8.43, 6.14, 4.88, 4.8, 5.0, 5.4, 6.96, 7.44, 8.87, 11.17, 12.89, 13.18, 13.56, 13.22, 10.4, -18.33, -11.5, -12.58, -3.82, -6.94, -5.6, -2.93, -0.0, -0.0, -0.0, -0.0, -0.0, -3.96, -3.96, -4.1, -4.1, -4.1, -4.24, -4.38, -4.38, -4.38, -4.38, -4.52, -4.27, -4.27, -3.38, -3.38, -3.58, -3.58, -3.8, -3.8, -3.69, -3.47, -3.38, -2.64, -2.64, -1.78, -0.89, -0.87, -0.84, -0.81, -0.81, -0.79, -0.79, -0.81, 0.0, -0.78, -0.75, 0.0, 0.89, 2.81, 3.96, 3.04, 1.9, 1.9, 2.71, 2.51, 2.53, 1.77, 1.9, 1.84, 1.84, 2.6, 2.49, 2.28, 2.17, 3.21, 3.36, 3.25, 3.25, 3.39, 3.67, 3.67, 4.8, 5.64, 6.7, 6.97, 7.59, 6.64, 6.64, 8.18, 6.95, 7.27, 7.87, 6.42, 5.98, 5.98, 6.44, 6.45, 7.41, 8.67, 9.02, 9.82, 11.41, 13.27, 15.96, 14.7, 13.27, 0.0, -9.17, -0.0, -0.0, -2.37, -4.32, -2.28, -2.71, -2.93, -0.0, -0.0, -0.0, -3.96, -3.96, -4.1, -4.1, -4.1, -4.24, -4.38, -4.38, -4.38, -4.52, -4.52, -4.52, -4.4, -4.4, -4.16, -4.16, -4.4, -3.8, -3.8, -3.8, -3.8, -3.58, -2.64, -1.78, -1.78, -0.87, -0.87, -0.84, -0.81, -0.79, -0.79, -0.84, -0.81, -0.78, -0.78, -0.75, 0.0, 1.71, 2.71, 3.96, 3.04, 1.9, 1.9, 1.84, 1.64, 1.77, 1.83, 1.77, 1.77, 1.63, 1.69, 1.62, 2.39, 2.28, 2.97, 3.11, 3.11, 3.25, 3.25, 3.67, 3.67, 3.98, 5.43, 5.86, 7.56, 6.7, 6.14, 6.64, 6.95, 4.2, 4.4, 6.95, 6.17, 6.87, 6.98, 6.44, 6.71, 7.65, 8.85, 8.72, 8.45, 9.78, 13.17, 14.35, 13.56, 11.86, -11.53, -2.13, -0.0, 0.0, -8.53, -6.7, -0.0, -0.0, -3.04, -0.0, -0.0, -0.0, -3.96, -3.96, -4.1, -4.1, -4.1, -4.24, -4.38, -4.38, -4.38, -4.52, -4.52, -4.52, -4.4, -4.4, -4.16, -4.16, -4.4, -3.58, -3.8, -3.8, -3.8, -3.58, -2.8, -1.89, -1.83, -1.83, -1.83, -1.77, -1.72, -1.72, -1.66, -0.84, -0.81, -0.78, -0.78, -0.75, 0.0, 1.84, 2.71, 2.93, 1.98, 1.84, 1.84, 1.71, 1.71, 0.89, 0.92, 0.89, 1.77, 1.63, 1.56, 1.5, 2.39, 2.83, 2.97, 2.97, 2.39, 2.39, 2.39, 2.71, 3.51, 3.82, 4.36, 5.64, 6.4, 7.26, 7.27, 6.95, 6.17, 4.4, 3.65, 2.97, 4.2, 6.17, 7.59, 7.27, 7.36, 8.75, 8.53, 8.1, 8.05, 7.63, 8.93, 9.54, 10.29, 4.39, 0.0, -0.0, 3.25, 7.69, 0.0, 0.0, 9.48, 13.86, 13.41, 12.96, 12.96, 12.96, -3.96, -4.21, -4.21, -4.36, -4.36, -4.1, -4.24, -4.38, -4.38, -4.52, -4.52, -4.66, -4.66, -4.4, -4.4, -4.16, -4.4, -3.58, -3.8, -3.8, -3.8, -3.8, -2.72, -2.72, -2.72, -1.83, -1.83, -1.77, -1.72, -1.72, -1.66, -1.66, -0.81, -0.81, -1.55, -0.8, 0.0, 1.77, 2.82, 2.82, 1.98, 1.84, 0.93, 0.83, 0.86, 0.89, 0.92, 0.96, 0.93, 0.86, 1.56, 1.62, 2.39, 2.17, 2.28, 2.28, 2.28, 2.39, 2.59, 2.59, 2.71, 2.95, 4.36, 4.54, 5.4, 5.77, 6.44, 6.17, 6.42, 5.46, 5.21, 5.86, 6.64, 8.8, 8.23, 7.59, 7.9, 8.22, 7.65, 6.44, 6.96, 6.15, 5.86, 5.14, 2.59, 1.59, 3.79, -0.0, -0.0, 0.0, 0.0, 2.35, 11.44, 13.59, 13.23, 12.72, 12.72, 12.72, -4.21, -4.21, -4.21, -4.36, -4.36, -4.36, -4.24, -4.38, -4.38, -4.52, -4.52, -4.66, -4.66, -4.4, -4.4, -4.16, -4.4, -3.58, -3.8, -3.8, -3.8, -3.8, -3.8, -2.72, -2.72, -2.72, -2.64, -1.77, -1.72, -1.66, -1.66, -1.61, -0.81, -1.61, -1.55, -0.8, 0.0, 1.77, 2.82, 1.91, 1.91, 0.89, 0.83, 0.83, 0.83, 0.83, 0.86, 0.86, 0.93, 0.86, 1.63, 2.31, 2.39, 2.11, 2.17, 1.47, 1.54, 1.54, 2.47, 2.59, 2.59, 2.95, 3.25, 4.54, 5.2, 5.4, 6.21, 4.15, 5.29, 6.95, 6.3, 7.27, 8.55, 9.6, 8.55, 8.38, 7.9, 7.27, 5.43, 5.64, 5.4, 5.6, 5.31, 3.54, 2.56, 1.55, 4.12, -0.0, -9.17, -13.86, -4.66, 10.43, 13.7, 14.11, 13.67, 13.15, 13.15, 13.15, -4.21, -4.21, -4.21, -4.21, -4.36, -4.36, -4.51, -4.24, -4.38, -4.38, -4.52, -4.52, -4.66, -4.4, -4.4, -4.16, -4.4, -4.4, -3.8, -3.92, -3.8, -3.8, -3.8, -2.89, -2.89, -2.81, -2.64, -1.77, -1.72, -1.66, -1.66, -1.61, -1.61, -1.55, -1.55, -0.8, 0.86, 1.77, 1.91, 1.84, 0.89, 0.0, 0.0, 0.0, 0.0, 0.8, 0.83, 0.83, 0.89, 0.86, 1.63, 2.31, 2.21, 1.5, 1.43, 1.47, 1.47, 1.47, 1.68, 2.47, 2.47, 2.83, 3.25, 3.39, 4.54, 5.2, 4.24, 5.54, 6.17, 6.14, 6.14, 7.9, 8.24, 8.93, 9.58, 8.38, 7.9, 7.27, 6.2, 5.21, 5.0, 5.6, 4.97, 5.24, 6.04, 3.05, -0.0, -0.0, -0.0, -2.72, 13.19, 14.47, 14.55, 14.03, 13.57, 13.57, 13.57, 13.57, -4.21, -4.21, -4.21, -4.21, -4.21, -4.36, -4.51, -4.38, -4.38, -4.38, -4.38, -4.52, -4.66, -4.4, -4.4, -4.4, -4.16, -4.4, -3.58, -3.92, -3.92, -4.05, -3.8, -2.89, -2.81, -2.81, -2.81, -2.55, -2.55, -1.66, -1.66, -1.61, -1.61, -1.55, -1.65, 0.0, 0.93, 1.77, 1.91, 0.86, 0.0, 0.0, 0.0, 0.0, 0.0, 0.0, 0.0, 0.0, 0.82, 1.63, 1.63, 2.31, 1.5, 1.5, 1.62, 1.54, 1.47, 1.6, 1.6, 1.68, 1.68, 2.7, 2.83, 3.25, 3.53, 3.68, 5.2, 5.54, 6.44, 5.9, 6.95, 7.27, 7.27, 7.59, 7.59, 6.17, 7.9, 6.5, 6.2, 5.43, 5.2, 4.64, 5.92, 8.2, 10.31, 7.42, -3.79, -0.0, 3.81, 7.36, 13.7, 14.64, 14.75, 13.56, 13.15, 12.79, 12.79, 12.79, -4.21, -4.21, -4.21, -4.21, -4.21, -4.21, -4.36, -4.24, -4.24, -4.24, -4.38, -5.31, -5.31, -4.4, -4.4, -4.4, -4.16, -4.4, -4.4, -3.92, -4.18, -4.18, -4.18, -3.8, -2.81, -2.81, -2.81, -2.72, -2.55, -2.47, -1.61, -1.61, -1.55, -1.55, -0.83, 0.0, 0.93, 1.77, 0.86, 0.0, 0.0, 0.0, 0.0, 0.0, 0.0, 0.0, 0.0, 0.0, 0.79, 1.56, 1.56, 1.56, 1.56, 1.5, 1.62, 1.54, 1.54, 1.6, 1.6, 1.6, 1.68, 2.7, 2.83, 3.25, 3.39, 3.53, 3.92, 5.54, 5.7, 5.9, 7.27, 7.27, 6.44, 7.9, 6.71, 6.17, 4.4, 5.7, 4.8, 5.21, 4.15, 3.68, 4.8, 8.97, 9.47, 11.61, 3.24, -3.41, 3.81, 11.52, 14.23, 15.2, 14.84, 13.59, 13.19, 12.27, 12.27, 12.27, -4.21, -4.21, -4.21, -4.21, -4.36, -4.36, -4.36, -4.36, -4.24, -4.98, -5.15, -5.31, -5.31, -5.48, -5.18, -4.4, -4.4, -4.16, -4.4, -4.66, -4.18, -4.18, -4.18, -4.05, -3.69, -2.81, -2.81, -2.72, -2.63, -2.63, -2.39, -2.31, -2.31, -1.65, -0.86, 0.0, 0.93, 0.89, 0.0, 0.0, 0.0, 0.0, 0.0, 0.0, 0.0, 0.0, 0.0, 0.73, 0.79, 1.56, 0.79, 0.79, 1.56, 1.5, 1.62, 1.62, 1.54, 1.6, 1.6, 1.6, 1.6, 2.7, 2.83, 2.02, 2.23, 2.33, 3.77, 4.23, 4.6, 6.17, 6.17, 4.8, 6.44, 6.71, 5.52, 5.29, 4.4, 3.65, 4.05, 3.39, 2.71, 3.55, 4.81, 5.03, 5.74, 7.71, 5.62, 0.0, -0.0, 10.75, 13.59, 15.14, 14.84, 13.74, 12.95, 12.45, 12.45, 12.45, -4.21, -4.21, -4.21, -4.21, -4.36, -4.36, -4.36, -5.28, -4.98, -4.98, -5.15, -5.15, -5.31, -5.48, -5.48, -5.18, -5.18, -5.18, -5.18, -4.53, -4.81, -4.18, -4.18, -4.05, -3.93, -3.69, -3.57, -2.72, -2.63, -2.54, -2.54, -2.31, -2.45, -1.6, -0.86, 0.0, 0.0, 0.0, 0.0, 0.0, 0.0, 0.0, 0.0, 0.0, 0.0, 0.0, 0.0, 0.73, 0.73, 0.73, 0.79, 0.75, 0.79, 1.5, 1.62, 1.62, 1.54, 1.68, 1.6, 1.52, 1.6, 1.75, 1.84, 1.93, 1.93, 2.13, 2.49, 2.49, 3.25, 4.8, 4.8, 4.8, 6.44, 6.71, 5.52, 5.29, 3.65, 3.49, 3.11, 1.92, 2.71, 3.68, 3.81, 2.79, 1.82, 2.53, 4.19, 3.99, 2.72, 7.0, 13.99, 13.97, 15.57, 14.24, 13.34, 11.93, 11.93, 11.93, -4.21, -4.21, -4.21, -4.21, -5.11, -5.11, -5.11, -5.28, -4.98, -4.98, -5.15, -5.15, -5.31, -5.31, -5.48, -5.31, -5.02, -5.18, -5.18, -5.18, -4.81, -4.18, -4.18, -4.18, -3.93, -3.81, -3.57, -3.57, -3.46, -2.54, -2.54, -2.45, -2.45, -1.6, 0.0, 0.0, 0.0, 0.0, -0.89, -0.86, -0.86, -0.8, 0.0, 0.0, 0.0, 0.0, 0.0, 0.0, 0.0, 0.0, 0.79, 0.75, 0.75, 0.82, 1.62, 1.54, 1.54, 1.68, 1.68, 1.6, 1.52, 1.67, 1.75, 1.75, 1.84, 2.04, 2.13, 2.39, 2.7, 1.62, 1.62, 4.8, 4.8, 4.6, 4.6, 3.82, 3.25, 1.62, 0.0, 1.07, 2.0, 3.06, 2.81, 1.83, 0.89, 0.8, 2.43, 5.46, 6.91, 5.23, 5.65, 15.18, 15.53, 15.27, 13.42, 11.63, 11.63, 11.63, -4.21, -4.21, -4.93, -4.93, -4.93, -5.11, -5.11, -5.11, -4.98, -4.98, -5.15, -5.15, -5.31, -5.31, -5.31, -5.31, -5.02, -5.02, -5.18, -5.18, -4.66, -5.11, -4.18, -4.96, -4.81, -3.81, -3.81, -3.46, -3.46, -3.34, -3.34, -3.23, -2.37, -1.6, -0.8, 0.0, 0.0, -0.89, -0.89, -0.89, -0.86, -0.8, -0.8, 0.0, 0.0, 0.0, 0.0, 0.0, 0.0, 0.0, 0.0, 0.75, 0.75, 0.82, 0.82, 0.78, 0.78, 0.81, 1.68, 1.6, 1.6, 1.52, 1.52, 1.6, 0.89, 0.93, 1.04, 1.16, 1.16, 1.39, 1.62, 2.71, 2.71, 3.53, 2.39, 2.02, 1.69, 0.0, 1.45, 5.95, 5.0, 4.48, 2.81, 1.78, 1.82, 2.51, 3.25, 6.1, 6.17, 6.59, 5.99, 13.23, 16.22, 16.37, 13.23, 10.47, 10.47, 10.47, -4.93, -4.93, -5.11, -5.11, -5.11, -5.11, -5.11, -5.11, -4.81, -4.98, -4.98, -5.15, -5.31, -5.31, -5.31, -5.31, -5.31, -5.02, -5.02, -5.18, -4.66, -4.96, -4.96, -4.96, -4.81, -4.66, -3.81, -3.68, -3.46, -3.34, -3.34, -3.23, -2.37, -1.6, -0.8, -0.83, -0.83, -0.89, -0.89, -0.86, -0.86, -0.86, -0.8, 0.0, 0.0, 0.0, 0.0, 0.0, 0.0, 0.0, 0.75, 0.75, 0.75, 0.82, 0.78, 0.78, 0.78, 0.81, 0.81, 0.81, 0.81, 0.77, 0.77, 0.77, 0.89, 0.89, 0.99, 0.0, 0.0, 0.0, 0.0, 1.62, 1.62, 0.0, 0.0, 0.0, 0.0, 1.45, 5.7, 6.87, 5.0, 4.32, 2.72, 2.5, 2.6, 3.45, 4.88, 6.87, 6.72, 6.42, 6.31, 8.74, 15.19, 15.77, 12.71, 8.29, 8.29, 8.29, -4.93, -4.93, -5.11, -5.11, -5.11, -5.11, -5.11, -5.11, -4.81, -4.98, -4.98, -5.15, -5.31, -5.31, -5.31, -5.31, -5.31, -5.02, -5.02, -5.18, -4.66, -4.96, -4.96, -4.96, -4.81, -4.66, -3.81, -3.68, -3.46, -3.34, -3.34, -3.23, -2.37, -1.6, -0.8, -0.83, -0.83, -0.89, -0.89, -0.86, -0.86, -0.86, -0.8, 0.0, 0.0, 0.0, 0.0, 0.0, 0.0, 0.0, 0.75, 0.75, 0.75, 0.82, 0.78, 0.78, 0.78, 0.81, 0.81, 0.81, 0.81, 0.77, 0.77, 0.77, 0.89, 0.89, 0.99, 0.0, 0.0, 0.0, 0.0, 1.62, 1.62, 0.0, 0.0, 0.0, 0.0, 1.45, 5.7, 6.87, 5.0, 2.94, 1.71, 1.67, 2.52, 4.56, 6.23, 7.45, 7.62, 7.0, 7.69, 8.97, 10.73, 12.64, 8.51, 5.49, 5.49, 5.49]}]